GFSCGP_850_thetae_000.txt.gz
Theta_e
320 323 325 326 326 325 327 328 329 331 330 330 331 333 331 329 328 329 329 328 326 326 326 326 326 326 326 326 327 330 329 329 326 328 329 329 330 328 328 327 326 325 325 323
321 325 323 325 326 325 326 328 329 329 329 328 329 330 330 330 330 329 327 327 327 327 326 326 326 327 325 325 327 329 330 329 324 330 330 329 330 327 328 328 328 324 326 324
320 322 323 325 325 325 328 328 329 329 328 329 329 331 331 330 329 328 327 326 325 328 327 326 327 328 326 326 325 329 329 328 323 327 329 330 330 328 328 328 329 327 324 324
320 321 324 325 325 327 329 328 328 328 328 329 329 333 332 329 330 329 326 326 326 328 327 326 327 328 327 325 325 328 328 328 330 325 329 329 329 329 328 326 327 327 325 325
319 322 323 327 326 327 328 328 328 328 329 328 328 330 328 330 330 328 326 325 327 328 328 327 328 328 327 325 326 327 328 328 330 330 326 331 330 329 329 327 327 327 324 326
319 321 324 326 327 327 327 328 328 327 328 332 329 329 329 329 327 326 326 326 328 329 328 328 328 328 326 324 325 327 329 327 330 331 330 331 330 329 328 327 326 327 327 325
321 320 323 326 326 327 327 329 330 332 330 332 328 329 331 330 327 326 325 327 329 329 329 328 328 328 325 324 324 327 329 327 327 329 330 331 329 327 326 325 326 326 327 326
323 322 322 325 327 327 328 330 328 334 331 330 331 332 328 327 326 325 325 327 330 329 328 328 328 327 325 324 322 325 327 327 326 327 330 330 330 328 325 325 325 326 327 326
324 323 324 324 326 328 328 328 327 328 328 329 329 330 330 329 326 326 326 331 331 329 328 328 328 326 325 325 323 324 326 326 326 327 330 329 330 329 328 327 324 325 327 325
326 327 326 324 327 328 329 327 327 327 331 335 329 330 329 328 327 329 332 332 332 329 328 328 328 326 326 324 324 325 327 326 325 326 328 328 330 330 329 329 324 323 327 325
327 331 328 327 329 328 328 328 327 329 328 331 332 330 330 331 332 335 333 333 332 329 327 328 327 327 325 323 325 325 326 324 325 325 327 328 330 331 330 328 326 323 326 326
327 329 331 329 328 328 328 328 329 330 333 329 329 331 332 332 330 332 333 333 330 328 327 327 327 327 323 323 325 325 326 324 323 324 325 327 330 331 331 327 327 325 325 325
327 329 334 332 330 329 329 329 329 332 334 334 329 330 331 330 330 330 333 331 329 328 327 327 327 327 322 323 324 324 326 324 321 323 325 326 329 330 329 327 327 327 326 327
329 330 331 334 332 331 331 329 327 329 333 329 330 329 331 330 329 330 333 331 329 328 327 327 327 327 322 323 323 324 325 324 320 320 324 325 328 328 328 329 330 330 327 325
331 329 332 329 329 328 328 327 327 328 330 330 330 329 329 331 331 330 332 331 329 328 327 327 327 326 322 323 323 323 324 323 319 319 322 324 325 330 329 327 328 331 329 325
333 330 331 328 328 329 328 328 327 327 327 328 329 330 331 330 329 329 332 332 330 329 328 328 328 327 322 323 323 323 324 323 319 319 320 324 324 329 328 328 324 324 326 326
334 331 331 333 328 328 330 329 328 328 328 329 329 330 330 329 329 329 333 332 332 330 329 328 328 328 323 323 323 323 324 323 319 319 319 323 322 324 329 329 327 324 324 324
332 333 331 333 331 332 328 329 327 329 328 328 329 330 330 330 328 327 329 332 331 331 330 328 329 328 324 323 323 323 324 323 319 320 319 320 322 324 327 327 326 325 325 324
330 332 331 334 333 328 326 327 329 330 331 330 328 328 328 328 327 328 327 327 330 330 330 329 329 329 325 323 324 323 325 324 320 321 321 318 321 323 324 326 325 325 324 324
328 331 333 332 334 334 329 327 326 328 330 330 330 330 330 328 328 329 327 327 331 330 331 331 330 329 327 324 324 324 325 325 321 321 322 319 318 322 324 325 326 327 325 325
327 329 331 331 337 329 328 327 327 329 329 331 329 330 331 332 329 327 329 327 331 330 331 331 330 329 328 325 324 324 324 325 323 321 322 321 317 319 322 325 325 327 328 328
327 328 331 332 332 329 327 327 329 334 331 330 329 329 328 327 327 327 329 330 331 331 331 332 332 330 330 327 325 325 325 325 324 322 322 322 319 318 321 322 324 325 325 327
325 328 330 329 330 332 328 331 329 327 330 328 329 327 327 327 327 327 329 331 332 331 331 332 333 332 331 329 326 325 325 325 324 322 322 322 321 318 321 323 324 324 321 326
321 321 323 325 328 329 326 326 327 327 328 329 328 328 327 327 327 327 327 331 331 332 331 332 332 333 332 330 328 326 326 325 324 323 322 322 321 320 323 321 323 322 321 323
315 317 321 323 325 327 327 327 328 328 329 329 329 329 329 329 329 329 329 331 331 331 331 332 332 334 334 332 330 328 327 326 325 323 323 322 322 321 322 321 325 321 324 315
312 314 317 324 319 319 327 326 326 328 329 330 329 330 329 330 331 330 331 331 331 331 332 333 332 333 334 334 333 330 328 327 325 324 324 323 324 322 321 320 325 324 324 322

GFSCGP_850_thetae_003.txt.gz
Theta_e
320 315 319 320 321 323 323 325 327 327 327 327 329 328 327 327 327 326 327 328 327 327 325 325 325 324 325 325 322 321 326 327 326 327 330 330 330 328 327 327 327 325 325 324
316 316 318 321 322 324 324 324 324 325 327 327 328 328 327 327 327 327 327 327 327 326 325 324 324 325 325 325 322 324 328 329 328 326 329 330 329 328 328 327 328 328 325 326
315 318 319 322 322 323 325 325 324 325 327 327 327 326 328 328 327 327 327 327 327 326 325 325 325 325 326 326 322 327 328 329 323 326 329 328 328 327 328 327 327 328 324 324
315 317 320 322 322 323 324 325 325 326 327 327 327 325 327 327 325 325 326 326 326 325 325 325 325 326 327 326 325 326 329 327 328 327 324 327 327 328 328 327 327 325 323 323
316 316 318 320 323 323 324 325 325 327 327 326 325 324 325 326 326 325 322 327 326 326 326 325 325 326 328 325 324 328 327 326 328 328 330 331 330 328 328 327 326 327 324 324
317 318 317 318 320 324 325 325 326 326 324 325 326 325 325 326 326 325 323 326 327 327 326 326 326 328 328 325 324 326 327 326 327 331 330 331 329 326 326 325 326 327 326 325
318 317 318 319 320 321 325 323 325 325 322 324 326 327 326 325 326 323 325 328 328 328 327 326 327 328 327 325 323 324 328 327 326 330 329 330 329 325 324 325 325 327 326 325
319 318 318 318 319 321 323 323 325 327 327 325 326 326 326 326 324 325 328 328 329 328 327 327 328 328 326 325 322 323 327 326 326 327 329 329 329 325 325 324 326 327 326 325
318 319 319 319 319 321 322 324 323 324 325 325 326 328 327 324 323 323 329 329 329 328 327 328 328 328 325 325 321 322 326 327 326 326 327 329 330 328 327 324 324 326 324 323
319 319 320 320 320 320 322 325 325 321 324 325 327 328 329 324 323 324 330 328 329 328 328 328 328 327 325 325 322 323 325 326 325 326 328 329 329 329 329 327 324 325 324 325
319 322 323 320 320 320 322 325 322 320 320 323 325 327 325 324 326 329 330 329 328 328 327 328 328 326 325 325 324 323 326 325 324 326 327 329 330 331 329 326 324 324 325 325
319 321 322 325 322 322 324 325 322 323 325 324 326 326 327 328 328 328 331 330 328 327 327 328 327 326 325 324 324 323 326 324 324 325 326 329 330 331 328 326 326 325 326 326
320 320 327 323 323 323 326 325 324 322 324 326 328 327 326 327 331 332 331 331 329 327 328 328 327 327 326 323 325 324 326 324 322 324 325 329 331 330 327 328 326 326 325 327
322 320 321 328 325 325 327 326 324 324 326 327 328 327 328 327 328 330 330 330 328 327 327 328 327 327 325 323 324 324 325 324 320 323 324 329 329 329 329 329 328 326 327 327
322 321 325 323 325 327 327 327 326 325 325 327 326 327 327 325 324 330 330 329 328 327 327 328 327 328 325 323 323 323 324 324 320 321 321 327 328 328 328 330 328 325 327 328
318 322 322 327 326 326 327 327 326 326 325 325 326 326 326 326 327 330 330 329 328 328 327 328 327 328 324 323 323 323 324 323 319 319 319 322 330 330 328 327 329 328 327 329
318 327 323 324 326 326 328 327 326 326 325 325 324 324 327 327 327 330 329 329 328 328 327 328 327 328 326 322 323 323 324 323 319 319 319 319 329 330 328 325 324 328 327 325
317 322 324 323 325 330 326 327 327 326 325 324 324 325 326 326 330 331 331 330 329 328 328 328 328 328 327 322 323 323 324 324 319 319 318 320 323 330 330 327 325 325 326 325
317 322 329 324 325 330 328 327 326 325 325 324 324 326 326 328 330 331 332 332 331 329 329 328 328 328 327 323 323 323 324 324 320 319 319 320 321 324 330 329 327 325 325 325
321 325 328 324 327 330 328 326 325 326 326 326 325 324 326 326 324 324 330 331 332 331 329 329 328 329 328 325 323 324 324 325 322 320 321 319 320 323 326 328 327 326 326 325
325 326 329 328 327 329 328 327 326 327 325 327 327 327 327 324 326 328 328 331 331 331 331 329 329 329 328 326 323 324 324 325 323 321 322 320 318 323 324 327 328 328 323 325
325 326 327 324 328 330 328 326 325 322 329 330 330 330 328 327 327 327 328 331 331 331 331 330 329 329 329 327 325 324 324 325 325 321 322 322 318 320 324 325 327 327 325 325
323 320 322 324 329 324 323 325 331 328 329 328 329 330 327 328 328 327 330 332 331 331 332 331 330 329 329 328 327 324 324 325 325 322 322 322 320 317 320 323 325 325 324 330
313 313 319 320 324 317 322 320 320 327 329 329 329 330 327 326 326 327 331 329 332 331 333 332 331 330 330 329 329 328 324 324 325 323 323 322 321 318 319 322 322 323 322 327
312 312 313 317 316 317 319 316 316 326 327 327 329 329 326 326 326 326 333 333 332 332 333 334 333 331 330 330 330 329 326 324 326 324 324 322 322 321 320 320 321 322 320 317
311 312 313 316 312 314 313 312 313 320 325 326 327 328 329 326 326 327 327 331 332 331 333 333 333 332 331 331 331 329 328 325 326 324 324 323 322 321 321 320 323 323 321 318

GFSCGP_850_thetae_006.txt.gz
Theta_e
319 319 317 318 318 320 321 321 322 323 324 325 325 325 326 325 325 324 325 327 327 327 326 324 324 324 324 325 324 320 316 319 319 323 328 329 329 328 327 327 327 327 327 325
317 316 316 319 320 319 319 322 322 322 323 323 323 324 325 325 324 324 325 326 326 326 326 325 324 325 325 325 323 320 320 320 323 323 328 328 329 328 327 327 327 327 328 325
315 319 319 318 318 320 319 320 323 323 323 323 323 324 324 326 325 326 326 326 325 326 326 325 325 325 325 325 323 319 323 322 326 324 327 327 327 328 327 328 327 326 325 324
314 316 319 317 317 319 320 321 323 325 325 324 323 325 322 324 324 323 324 325 326 326 325 325 324 325 325 325 323 323 325 326 324 327 324 326 330 329 327 328 326 326 323 323
315 315 315 316 316 319 321 321 322 324 325 322 323 322 321 322 324 324 322 324 326 326 325 324 324 325 325 326 324 324 327 327 324 328 330 329 330 326 327 326 326 326 323 323
314 316 315 315 317 319 321 321 321 322 323 324 324 323 325 323 324 324 322 325 325 324 324 324 325 325 326 325 324 327 327 325 325 330 330 329 329 325 324 325 326 326 325 324
315 314 315 316 316 317 320 320 322 321 323 326 322 324 324 323 323 323 320 324 324 324 325 325 325 326 327 325 324 326 324 326 325 329 329 328 328 324 324 325 325 326 325 325
315 316 315 316 316 316 316 316 323 324 324 323 323 324 323 322 323 325 323 324 325 325 325 325 326 327 327 325 323 323 323 326 326 329 328 329 329 326 326 323 325 326 325 324
315 316 318 317 317 316 316 318 318 321 322 322 322 323 325 323 322 324 325 326 326 326 326 326 326 328 327 324 322 322 325 326 326 327 327 329 329 328 328 325 325 324 324 323
316 317 318 317 317 316 316 318 320 318 323 324 323 325 324 323 323 326 325 324 326 326 327 327 327 328 326 324 322 321 325 326 325 325 327 329 328 329 327 325 324 323 323 323
315 317 319 318 316 316 315 317 320 320 319 323 322 322 320 321 320 327 325 326 327 327 327 327 328 328 326 325 322 323 325 325 325 326 328 328 329 331 327 324 324 325 325 324
315 314 317 318 318 317 316 316 320 322 321 320 320 322 322 321 321 326 325 327 327 327 327 327 328 327 325 325 323 322 325 325 324 325 327 328 329 330 327 326 325 325 325 325
316 316 318 322 318 319 317 319 319 317 318 322 322 321 324 325 326 327 326 326 327 327 328 328 327 326 325 325 323 323 325 324 324 324 328 329 329 328 327 326 326 325 326 325
313 316 316 319 320 320 320 319 322 319 320 320 322 323 326 328 329 327 328 327 327 327 327 328 327 326 325 324 323 324 325 325 322 324 327 328 328 327 329 326 327 326 326 325
310 318 317 317 319 322 322 321 323 323 321 323 322 323 323 325 329 329 329 327 326 327 327 327 327 326 326 324 323 324 324 324 320 323 324 327 326 330 330 326 327 326 327 327
309 316 318 318 318 319 320 323 324 324 322 322 323 324 323 325 329 328 327 326 325 326 327 327 327 326 327 324 322 323 324 325 320 321 320 326 327 329 329 327 328 328 328 329
309 316 319 320 320 319 319 322 324 323 324 323 323 322 321 322 327 328 327 327 326 326 327 327 327 327 327 324 322 323 323 324 320 319 319 324 329 328 327 328 327 326 326 328
310 312 314 319 320 324 323 322 324 324 323 322 321 321 322 324 325 330 330 327 327 326 326 327 327 327 326 324 322 323 323 324 320 318 318 322 329 327 326 325 327 328 326 324
309 311 317 319 321 323 327 324 324 323 323 321 322 320 321 324 326 328 329 330 329 327 327 326 326 327 327 325 322 322 323 324 320 318 318 319 329 329 328 325 325 326 325 325
312 312 321 323 320 324 325 325 324 323 325 321 321 321 321 326 328 327 329 330 329 329 328 327 327 327 327 326 322 322 323 323 321 319 318 319 324 330 330 327 325 325 324 325
322 322 321 323 320 326 323 324 325 326 325 322 323 323 323 322 327 329 331 330 329 329 328 327 327 327 327 326 322 322 323 323 323 321 319 319 318 322 328 328 327 326 325 325
318 320 322 321 324 331 319 324 327 321 324 325 323 324 324 326 326 329 331 330 330 329 328 328 328 328 328 327 323 322 323 323 324 322 320 320 318 321 322 326 327 327 325 325
317 316 316 318 323 314 318 316 314 314 317 325 324 326 326 327 327 328 329 331 331 331 330 329 328 328 328 327 325 323 323 323 324 322 320 321 318 320 323 323 326 326 326 323
310 311 315 313 319 312 313 312 313 313 313 318 323 325 326 327 327 328 327 329 331 332 330 329 329 328 328 327 326 327 324 323 324 323 321 321 319 318 321 323 324 325 325 321
310 311 311 313 313 312 314 311 312 313 312 313 320 323 326 326 327 328 328 329 331 331 330 330 330 329 329 328 327 326 325 323 324 324 321 321 321 318 318 319 320 322 322 320
311 310 312 313 311 311 311 311 311 312 312 312 313 322 325 326 326 327 329 330 330 331 331 331 331 330 329 329 328 327 326 324 323 325 322 322 322 320 318 318 320 321 321 321

GFSCGP_850_thetae_009.txt.gz
Theta_e
314 316 318 317 316 316 316 316 317 318 320 322 321 322 323 323 322 323 323 324 325 325 326 325 324 323 323 323 323 323 321 317 316 320 321 324 325 327 327 327 327 327 327 327
315 315 318 318 317 316 317 318 319 320 321 321 320 321 321 321 321 322 324 324 324 323 325 325 324 323 323 323 324 323 319 319 319 320 320 324 325 326 327 327 327 327 327 327
312 315 319 320 318 319 317 317 318 320 321 321 321 322 322 322 322 324 325 325 324 325 325 325 323 323 323 324 324 322 320 320 321 320 323 323 325 328 328 327 327 326 326 324
312 314 317 318 318 317 318 319 319 320 320 323 321 323 321 321 322 321 323 324 326 326 325 325 324 323 324 325 324 321 321 322 322 323 323 326 327 326 326 327 326 326 323 323
312 313 314 317 316 317 318 319 320 320 320 321 322 322 321 320 322 321 320 322 324 325 325 325 324 324 325 325 324 322 323 324 322 324 326 328 328 326 324 324 325 326 323 323
310 314 314 315 318 318 317 318 318 318 319 321 322 321 323 321 321 322 322 323 324 324 325 325 324 325 325 325 324 323 326 324 323 325 329 329 328 326 324 324 325 326 325 323
312 312 314 314 316 315 315 316 318 318 321 323 320 321 323 322 321 321 321 322 324 324 324 325 325 325 325 325 324 326 326 321 325 329 329 328 329 326 324 323 325 326 325 324
314 314 313 315 314 314 315 317 320 323 322 322 321 324 323 321 321 323 324 322 324 323 324 325 325 325 326 325 324 325 323 324 325 328 328 327 329 326 326 324 325 325 325 325
314 314 315 315 315 315 314 317 318 318 320 321 321 321 321 322 322 323 322 322 323 324 324 324 325 325 326 325 324 323 321 326 325 327 327 328 328 329 328 325 324 324 324 324
314 314 315 315 315 314 313 313 314 312 318 321 322 322 323 323 325 324 323 322 323 324 325 325 325 326 327 325 323 322 323 325 326 326 327 328 328 329 325 324 323 323 322 322
313 314 316 316 315 314 312 314 314 316 317 320 321 322 319 321 322 324 322 323 324 324 325 325 326 327 327 324 323 321 324 326 325 326 327 328 329 329 325 324 324 325 323 323
313 311 314 315 315 315 315 314 314 316 318 318 320 323 321 318 318 322 322 324 325 325 326 326 326 327 326 324 322 321 324 326 324 325 327 328 328 329 326 326 324 326 324 324
311 314 314 315 316 315 314 314 314 314 316 319 320 322 321 320 318 324 323 325 325 325 326 326 327 327 326 324 323 322 324 324 324 325 327 328 328 327 327 325 325 326 325 325
309 313 315 315 316 317 316 315 314 316 317 318 320 321 324 325 322 323 324 325 325 326 326 327 327 327 326 324 323 322 324 324 323 324 327 329 328 327 327 326 325 325 324 324
307 310 316 317 315 317 319 317 316 316 317 319 320 319 320 325 324 324 325 325 325 326 327 327 327 327 325 324 323 323 323 324 322 322 325 327 327 328 326 327 325 325 326 323
306 308 314 319 316 315 316 318 317 318 318 320 319 320 318 322 326 326 326 324 325 326 327 327 327 327 325 325 323 323 323 325 321 321 323 325 328 329 327 327 326 327 328 325
308 310 311 319 318 316 316 316 317 319 320 320 320 319 319 323 327 326 326 325 325 326 327 327 327 326 325 325 322 323 323 324 321 320 321 324 328 329 327 326 328 328 328 329
308 308 310 313 317 317 317 317 317 318 321 320 320 319 320 321 327 329 329 329 326 326 327 327 326 326 326 326 322 322 323 323 322 320 319 321 329 328 328 327 326 325 324 325
310 308 310 316 316 318 321 322 317 318 320 320 320 319 320 322 325 328 329 329 329 327 327 326 326 326 326 326 322 322 323 323 322 319 318 319 329 326 326 325 327 326 324 323
312 309 310 318 316 318 322 319 320 321 322 321 324 318 318 322 324 323 329 329 328 327 327 326 326 326 326 326 323 322 322 323 322 319 318 318 327 328 326 324 325 326 324 322
314 311 311 314 317 324 317 317 316 322 320 314 321 323 318 323 324 326 327 330 330 329 328 327 326 326 326 326 324 322 322 322 323 320 318 318 322 328 328 328 324 324 324 324
314 317 320 318 321 328 313 315 317 314 312 313 313 320 321 324 325 325 326 328 329 329 327 327 327 326 326 326 325 322 322 321 322 321 318 318 320 326 328 328 327 326 325 325
314 311 315 317 320 314 311 312 311 313 312 312 312 313 321 323 322 326 327 328 329 330 329 329 328 327 326 326 326 323 322 322 322 322 319 319 319 318 319 327 328 327 326 325
308 309 314 313 316 313 311 311 310 311 311 312 312 315 321 323 323 325 328 329 329 330 329 329 328 327 327 327 327 326 323 322 322 322 321 320 319 319 321 323 325 326 326 325
309 310 310 311 313 311 312 310 309 310 311 312 314 315 320 326 324 324 328 329 330 330 330 329 329 328 327 327 327 326 324 322 322 323 322 320 320 319 320 322 322 322 323 322
309 308 310 312 309 309 310 310 309 310 310 313 314 316 321 326 326 325 326 328 329 330 330 330 330 329 328 328 327 327 325 323 322 323 323 320 320 320 318 320 322 323 322 322

GFSCGP_850_thetae_012.txt.gz
Theta_e
309 312 314 313 314 315 314 314 314 315 318 318 318 318 319 320 320 319 321 321 323 324 324 325 325 324 323 324 323 323 322 322 320 319 319 322 323 324 325 326 327 327 327 327
312 311 313 314 315 315 315 315 314 316 319 319 318 319 319 319 319 320 321 322 322 324 325 325 324 324 323 323 323 323 323 322 319 318 320 319 323 323 326 327 326 327 327 327
309 311 313 315 316 316 316 316 317 317 319 319 319 319 320 320 320 321 322 323 325 325 326 325 324 324 322 322 323 323 323 320 319 320 319 322 322 326 326 325 327 326 326 325
309 310 312 316 317 318 317 317 317 319 319 318 318 321 319 319 320 319 321 323 324 324 323 324 324 323 322 322 323 323 321 321 320 319 320 323 325 327 324 324 325 326 324 322
308 310 312 314 318 319 318 319 318 319 318 318 319 319 320 318 319 320 319 323 324 322 322 324 324 323 322 323 324 323 322 322 319 320 323 327 327 327 324 324 324 326 325 323
309 311 311 314 317 318 318 317 316 316 315 318 318 319 319 319 321 320 320 322 322 323 323 324 324 322 323 324 323 323 323 322 320 322 325 328 328 327 324 324 324 325 325 323
310 309 311 313 314 315 314 313 314 315 316 318 318 319 319 319 319 320 320 321 323 323 324 324 323 323 324 324 324 324 324 323 321 322 327 328 329 327 326 324 324 326 325 323
312 312 309 313 313 315 317 315 314 317 319 321 319 321 321 319 319 321 321 321 323 323 324 324 324 324 324 324 324 323 324 321 322 326 328 327 329 327 327 325 324 324 324 324
312 313 313 312 314 315 315 315 314 317 318 319 318 320 320 320 321 321 320 320 322 323 324 324 324 325 324 325 324 323 322 323 323 327 327 327 328 329 326 324 322 323 324 324
312 313 313 312 313 314 313 314 315 313 317 320 319 320 322 322 321 322 322 319 321 323 324 324 325 324 325 325 324 323 321 323 324 326 327 327 327 329 325 323 324 322 322 323
310 312 315 312 312 312 311 312 312 314 312 317 319 320 317 320 320 321 320 321 322 323 324 324 324 325 326 325 323 322 322 324 325 326 327 327 328 329 325 324 324 324 322 321
309 310 312 313 313 313 313 312 313 314 315 315 318 319 318 318 317 319 319 322 322 324 324 324 324 325 326 324 323 321 322 324 324 325 327 327 327 329 326 325 324 324 323 322
310 312 312 313 314 312 313 313 313 311 313 316 318 318 319 320 319 319 320 323 323 324 324 325 325 326 326 324 323 321 322 324 324 325 326 327 328 326 326 325 325 324 325 324
308 309 313 314 313 313 313 313 313 312 311 315 318 319 320 324 320 318 321 323 324 324 325 325 325 326 326 324 323 321 322 324 323 324 327 328 327 327 326 325 325 324 324 324
305 308 311 311 314 315 316 314 314 313 313 314 315 317 317 318 321 319 322 323 324 325 325 325 326 327 326 324 323 322 321 324 323 323 326 328 327 326 326 325 323 323 324 324
308 308 309 311 316 316 316 314 314 313 314 314 316 316 315 317 323 322 323 323 324 325 326 326 326 327 326 324 323 322 321 324 323 322 325 327 328 326 326 325 326 325 323 322
309 307 307 310 311 315 316 315 314 315 313 314 316 317 318 322 323 322 324 324 325 326 326 326 326 326 326 324 324 322 321 324 322 320 324 326 328 326 327 326 327 328 327 324
309 307 307 309 313 316 316 315 315 314 315 315 315 316 317 319 325 325 325 326 326 326 326 326 327 326 325 324 323 322 322 323 322 320 322 325 328 328 326 326 326 325 327 327
309 310 311 312 315 315 318 318 317 319 317 316 321 321 318 319 324 326 326 325 327 328 327 327 326 325 325 324 323 321 322 322 323 320 320 323 328 328 327 327 326 324 324 328
311 311 313 312 317 318 317 314 314 317 317 313 313 314 319 320 323 322 327 327 327 328 327 327 326 325 325 324 323 321 322 322 322 320 319 319 328 326 325 325 327 324 323 327
314 312 313 311 312 318 313 312 313 321 315 311 312 312 311 319 321 322 323 327 328 329 328 327 326 325 325 324 324 321 321 322 321 320 318 318 326 327 325 324 324 324 323 323
314 314 313 310 316 324 312 312 313 312 312 311 312 312 312 312 316 321 322 327 328 328 328 327 326 325 325 325 325 322 321 320 321 322 319 318 320 328 327 326 324 324 324 321
314 311 312 315 317 313 313 311 310 309 309 310 310 312 313 314 319 322 322 323 327 328 329 328 326 325 325 325 325 322 320 321 322 322 319 318 319 321 327 328 327 325 325 324
309 308 312 311 311 311 309 312 310 309 309 310 311 312 314 315 319 324 323 322 325 327 329 328 327 326 325 325 326 325 321 321 321 322 321 318 318 321 325 325 327 326 326 325
307 308 309 311 310 309 310 309 309 309 309 309 313 314 315 317 323 324 323 323 325 326 328 328 328 327 327 326 326 326 325 321 321 322 322 319 318 319 319 321 323 326 325 324
308 307 310 310 308 308 309 309 309 310 310 309 312 314 317 317 325 326 323 323 326 326 328 328 328 328 327 327 326 326 326 324 321 321 322 321 319 319 318 320 321 325 324 323

GFSCGP_850_thetae_015.txt.gz
Theta_e
309 312 316 315 315 317 318 320 321 321 318 318 319 320 321 321 322 322 322 322 322 322 324 324 325 325 325 324 323 323 323 323 323 322 321 317 321 325 324 325 327 328 327 328
310 313 314 316 315 314 315 318 319 319 317 318 319 320 322 322 322 321 322 323 324 325 324 325 325 324 324 323 323 323 323 323 322 322 319 319 323 324 324 327 326 326 327 327
313 314 312 313 315 315 315 316 316 317 318 319 320 321 320 321 322 322 321 322 323 323 324 325 325 324 321 321 322 323 322 322 322 320 318 321 324 324 325 324 325 326 326 326
311 313 313 313 314 316 317 316 316 316 317 319 320 323 322 322 322 322 322 324 325 324 323 323 324 323 322 321 322 322 322 323 320 318 320 323 324 325 325 323 324 325 325 323
311 311 312 313 314 316 317 317 317 318 319 320 320 322 321 322 322 323 323 324 325 322 321 322 323 323 322 321 322 323 323 321 320 320 322 324 326 326 324 323 324 325 326 323
312 311 312 314 314 316 317 318 319 320 320 322 320 321 321 322 322 322 325 325 323 323 322 322 323 323 321 323 323 323 322 321 321 321 323 327 327 327 325 323 323 325 325 323
311 311 312 312 314 316 319 320 320 320 320 322 321 321 322 323 322 322 324 326 323 323 323 323 323 322 323 323 323 323 322 322 321 322 325 327 328 327 326 325 324 325 325 324
314 312 312 313 314 317 319 320 319 321 322 321 321 320 321 323 322 321 323 324 323 325 324 324 324 324 323 324 323 323 323 323 321 323 327 327 328 328 326 324 323 324 324 323
316 315 313 313 315 319 320 320 319 321 322 323 324 324 324 324 325 325 324 323 325 326 325 324 324 323 324 324 324 323 324 320 322 327 327 327 328 328 325 323 323 324 324 322
314 316 315 313 314 315 318 319 319 319 320 320 322 324 326 326 326 327 327 326 325 326 325 324 324 324 324 324 324 324 321 322 324 326 326 327 327 328 325 324 323 322 323 322
313 315 316 313 315 315 315 319 318 319 318 319 319 320 327 328 327 329 329 326 326 326 326 325 325 324 324 325 324 324 320 323 325 326 327 327 328 329 326 325 325 322 322 321
311 315 317 315 314 316 316 318 318 317 319 319 320 320 324 326 326 326 327 324 325 326 326 325 325 324 325 325 324 322 322 324 325 326 327 327 327 328 326 325 324 323 322 320
312 316 317 317 316 315 316 316 318 319 320 319 318 320 323 326 325 323 326 324 325 326 325 325 325 324 325 324 323 321 322 324 324 325 327 327 328 327 326 325 325 324 323 322
309 311 315 317 317 317 316 316 316 318 318 318 319 319 322 323 328 326 325 325 325 326 326 325 325 325 326 324 323 321 322 324 324 324 326 328 327 328 326 325 325 324 324 324
310 312 311 312 312 314 316 315 316 317 317 318 319 319 320 322 324 325 325 325 326 326 326 326 325 326 326 324 322 321 322 324 323 324 327 328 327 326 325 324 324 324 324 324
310 312 311 313 314 316 317 317 316 316 316 316 317 319 320 320 321 325 325 325 326 327 327 326 326 326 326 324 322 321 321 323 323 324 326 327 326 326 324 324 323 324 324 323
311 311 312 315 314 316 317 318 318 316 316 316 317 319 319 320 324 326 327 326 327 327 327 326 326 326 326 324 322 321 320 323 322 323 325 327 327 326 325 327 326 324 323 324
310 311 311 315 317 318 319 319 318 318 318 318 317 318 321 322 322 320 324 327 327 328 327 326 326 326 326 324 323 321 320 322 322 322 325 327 327 327 326 327 328 328 326 324
309 311 315 316 320 319 322 317 318 321 319 317 318 319 320 320 324 323 325 326 327 326 327 327 326 326 325 323 323 321 321 322 321 321 323 326 328 326 325 325 324 324 328 326
310 310 313 315 321 321 318 315 314 318 323 315 315 317 317 318 322 324 321 324 326 328 327 327 327 326 325 323 322 321 321 322 321 322 322 326 328 327 326 327 325 323 327 328
315 315 315 316 317 321 316 313 314 325 319 314 314 314 315 318 323 318 318 321 326 326 327 327 327 326 324 323 322 321 321 320 319 321 320 322 328 327 325 326 325 323 324 326
315 316 316 314 317 324 314 313 317 313 312 312 313 314 314 315 316 317 320 322 324 326 326 327 327 326 324 323 322 320 320 319 320 320 320 320 325 327 324 324 325 323 321 322
314 312 315 314 317 313 312 312 311 311 311 312 312 313 314 316 317 319 320 322 324 326 326 326 327 325 325 323 322 320 318 320 320 320 320 318 319 328 326 324 324 324 323 320
310 309 313 313 312 311 311 310 310 310 311 311 311 312 314 316 318 320 323 325 324 325 326 327 326 325 325 324 322 320 319 319 320 321 321 319 318 322 327 327 327 325 325 323
310 310 310 312 310 310 310 310 309 310 310 310 311 312 314 317 319 321 326 327 324 325 325 327 327 325 324 324 324 323 320 319 320 321 322 320 318 319 321 327 328 327 326 324
309 310 311 311 308 308 309 309 309 310 310 310 310 312 314 316 319 323 326 328 326 325 325 327 327 326 325 324 325 325 324 320 319 320 321 321 319 318 320 321 323 325 326 325

GFSCGP_850_thetae_021.txt.gz
Theta_e
316 317 317 319 321 323 324 326 327 328 329 328 328 329 330 328 327 327 327 328 327 326 327 328 327 331 332 333 336 340 339 338 343 343 339 335 333 332 332 332 333 333 333 333
317 318 319 318 320 321 322 324 326 327 328 328 329 329 329 329 328 327 327 328 327 327 327 327 328 334 335 336 337 337 338 341 342 340 336 333 332 332 332 332 333 333 333 334
316 319 318 318 319 320 322 323 325 326 327 327 327 327 327 328 327 326 326 326 326 327 327 328 328 336 336 337 337 337 338 341 339 336 333 332 332 332 333 331 332 333 333 333
316 316 319 319 319 320 322 323 324 325 326 326 325 328 327 327 328 328 327 327 328 327 327 327 329 337 336 337 337 338 340 339 336 333 333 333 332 330 330 332 331 333 333 331
315 316 317 319 319 319 321 321 323 324 324 325 324 325 325 326 327 328 329 327 327 326 327 327 333 336 336 336 337 338 338 336 335 334 333 332 330 330 331 330 332 331 333 330
313 315 317 317 319 320 320 321 322 324 324 326 325 325 326 327 328 329 329 327 327 328 328 331 335 336 335 335 337 337 337 336 336 334 334 331 333 333 331 333 333 331 330 328
312 314 316 318 318 320 321 322 323 325 325 327 324 326 327 328 329 328 329 327 327 330 332 334 335 334 335 335 336 336 336 336 335 333 333 333 334 334 334 333 330 333 331 327
312 312 314 317 318 320 321 322 323 326 327 325 325 327 328 329 327 327 327 327 331 333 333 334 334 334 334 335 335 335 335 335 333 332 332 333 333 334 331 332 332 330 331 329
319 312 313 316 318 318 321 323 323 324 326 326 329 329 329 329 329 327 328 327 331 333 334 334 334 334 334 334 334 335 334 333 333 331 333 333 334 333 333 330 328 330 328 329
317 317 313 317 318 318 320 322 322 325 326 329 328 330 331 329 328 328 330 329 331 334 334 334 334 334 334 334 335 335 334 333 331 332 332 332 334 334 333 333 332 329 331 329
314 319 319 315 319 318 319 321 322 324 325 327 329 329 330 330 329 329 331 331 334 335 334 334 334 334 334 334 334 334 333 330 331 332 332 332 332 334 333 333 331 330 330 329
314 318 322 319 319 319 319 321 323 326 327 325 328 328 327 328 330 329 331 333 335 334 333 333 333 333 334 334 334 333 330 329 331 331 332 332 333 334 333 330 330 329 329 328
315 318 321 324 322 319 319 321 324 325 327 326 327 328 328 329 331 331 333 333 334 333 333 333 333 333 334 334 334 330 329 328 329 330 331 332 333 333 333 331 329 329 328 329
311 317 319 326 323 319 320 321 323 325 327 327 326 327 326 329 331 332 333 333 333 333 332 333 333 333 333 333 331 328 327 328 329 330 330 332 334 333 331 330 330 329 329 328
313 317 317 319 321 321 320 321 324 325 326 327 326 325 328 331 331 332 333 332 333 333 332 333 332 333 333 332 329 327 327 327 328 329 331 332 333 332 331 330 330 329 328 329
313 319 315 318 319 322 321 321 322 324 324 325 325 325 326 329 327 328 328 331 333 333 332 333 332 333 332 331 328 326 327 327 327 329 332 332 332 331 331 331 330 329 329 329
312 318 318 321 320 321 321 322 322 322 324 324 323 324 324 325 325 327 328 329 332 333 333 333 332 333 332 330 327 326 326 327 328 330 332 332 331 331 331 331 331 331 330 330
312 315 318 321 320 324 321 322 322 322 323 323 323 323 324 326 326 325 326 329 329 332 333 333 333 333 332 329 327 325 326 326 327 330 331 331 331 331 331 331 331 332 330 331
311 313 318 322 325 324 322 323 322 322 324 325 325 323 325 325 324 325 328 329 331 332 333 333 333 333 332 329 327 325 326 325 327 330 331 331 331 332 333 333 332 331 331 330
312 313 316 320 326 329 326 323 322 325 329 324 324 325 326 325 326 332 328 328 330 334 333 334 333 334 332 328 327 325 326 325 327 329 331 331 331 332 332 334 334 334 332 332
316 316 318 320 324 326 320 322 321 325 328 323 323 324 324 327 328 325 326 328 329 331 334 334 334 334 333 329 327 326 326 324 326 327 331 332 332 332 333 333 334 333 333 332
316 318 319 320 325 328 318 321 325 323 321 321 322 322 323 324 325 326 327 328 329 330 334 334 334 334 333 329 327 326 326 325 326 327 330 332 332 332 333 333 333 334 333 332
319 315 316 318 316 313 315 316 317 318 320 320 320 320 321 324 326 327 328 329 330 330 333 334 335 335 333 329 327 326 326 325 325 326 329 332 332 332 333 333 332 332 333 332
313 311 314 317 313 314 314 314 314 316 317 319 318 319 321 323 325 328 330 331 331 332 331 333 334 335 334 330 328 326 326 325 324 326 328 331 332 332 332 331 329 330 330 330
312 311 313 313 311 314 314 314 314 315 316 318 318 319 320 321 324 326 329 333 333 333 332 333 334 335 335 331 329 326 326 324 324 326 327 329 332 332 332 330 328 327 328 329
311 311 314 314 312 312 313 313 314 314 316 316 317 319 320 320 322 324 327 330 334 335 333 331 333 335 335 332 329 326 326 325 325 325 327 328 329 332 331 330 330 329 328 326

GFSCGP_850_thetae_024.txt.gz
Theta_e
313 316 317 317 319 321 323 325 325 327 328 329 330 330 330 331 329 331 330 328 328 329 331 329 327 327 329 331 331 334 336 338 342 345 345 345 343 338 334 332 333 333 334 334
314 317 319 317 317 318 319 322 324 326 326 328 329 330 331 331 331 330 331 330 329 329 328 329 328 328 334 332 332 333 337 339 341 345 344 343 339 335 333 332 333 333 334 332
315 316 316 318 318 318 320 321 324 324 325 326 328 329 330 330 330 329 328 328 328 328 327 327 328 329 334 333 333 336 339 340 342 343 343 339 335 334 333 333 334 333 332 331
314 315 315 318 319 319 321 320 321 322 324 327 326 329 331 331 330 329 329 328 329 328 328 328 329 335 335 335 335 338 339 341 341 342 338 335 333 333 333 332 331 334 335 334
310 314 316 316 318 319 320 320 321 322 323 326 325 328 328 329 328 328 329 328 328 328 328 329 329 336 337 337 337 339 340 340 340 336 334 333 333 332 333 333 331 330 330 331
310 310 313 316 316 318 320 320 320 322 324 326 326 327 328 328 328 328 330 329 329 329 328 328 335 338 338 338 339 340 339 338 336 334 335 333 331 333 332 331 332 333 332 329
313 311 312 313 316 317 319 323 323 324 324 326 325 326 328 328 328 329 331 330 329 328 329 336 338 338 338 338 339 339 337 337 334 335 333 335 333 332 332 333 333 331 331 329
317 319 312 313 315 318 319 323 323 323 324 325 324 327 327 328 329 329 327 328 328 331 336 338 337 337 337 338 339 338 338 336 335 334 332 334 334 331 334 332 332 332 332 328
315 317 316 313 315 317 319 319 322 324 324 324 326 327 328 329 329 330 327 328 332 333 336 337 336 336 337 338 337 337 337 336 334 333 334 334 333 334 332 331 327 330 328 327
312 314 314 317 314 315 318 320 321 324 325 328 327 328 329 331 332 330 329 332 335 336 336 336 336 337 337 337 337 336 335 334 334 332 334 333 333 334 332 332 331 329 328 331
311 313 313 315 318 314 318 319 321 324 324 327 328 328 335 333 331 331 332 330 336 336 336 336 336 336 337 336 336 336 335 334 332 333 333 333 330 331 333 331 331 328 328 328
313 314 317 316 319 315 318 319 321 324 326 326 327 329 332 333 330 333 333 333 336 336 335 335 336 336 336 336 336 335 334 332 333 332 332 331 334 332 332 331 329 327 328 328
313 317 318 318 319 321 319 320 322 325 328 328 327 329 330 329 332 331 335 336 336 335 335 335 335 336 336 336 336 334 331 330 331 332 332 331 332 331 331 330 329 329 329 328
311 314 316 320 321 322 323 319 321 325 326 327 328 329 330 330 331 333 337 337 336 335 335 335 335 335 335 336 335 331 329 330 330 331 332 330 331 331 330 329 328 328 329 328
312 316 316 314 316 320 322 323 320 323 325 327 327 328 328 332 332 336 336 335 335 334 334 335 335 335 335 335 332 329 329 329 330 331 332 331 330 330 330 329 329 329 328 329
313 316 315 316 314 316 320 322 323 322 324 326 327 329 331 332 332 334 335 334 334 334 334 334 334 335 335 333 330 328 329 329 330 332 332 330 331 331 330 329 329 328 328 328
312 315 317 317 314 317 322 323 323 323 325 327 328 330 332 330 331 334 334 334 334 334 333 334 334 334 334 332 329 328 328 328 329 334 331 332 332 332 330 329 329 328 328 329
311 313 317 320 319 321 322 323 323 323 326 327 327 330 330 329 328 329 330 332 334 333 334 334 334 334 333 331 328 328 328 328 329 333 331 332 332 331 331 330 330 330 329 328
311 312 317 321 321 320 323 326 326 326 328 327 328 327 327 326 330 331 330 329 331 334 334 334 334 334 333 330 328 327 328 327 330 332 332 332 332 330 331 330 330 330 330 330
312 313 317 319 320 332 326 323 323 325 330 326 327 328 328 327 330 331 329 329 330 332 335 334 334 335 333 329 327 326 327 327 329 331 332 332 331 332 333 333 331 331 329 330
315 317 318 317 320 320 320 318 322 329 329 325 325 326 326 329 328 327 328 329 329 332 335 335 334 335 333 329 327 326 327 326 328 331 332 332 331 332 331 331 331 333 332 329
317 319 318 319 320 323 314 319 324 321 323 323 323 324 325 326 327 328 328 329 330 331 335 335 335 336 333 329 327 326 327 326 328 330 332 332 332 332 333 331 332 333 331 330
316 315 316 318 315 311 315 316 316 318 321 321 321 322 324 326 327 329 330 330 331 331 333 336 336 336 333 330 327 327 327 325 327 329 332 333 331 334 332 331 333 331 329 329
312 311 314 316 313 313 315 315 315 317 318 319 320 322 322 324 326 328 331 332 332 333 332 335 336 336 334 330 328 327 327 325 327 328 332 334 331 335 333 331 333 332 332 331
312 312 313 313 312 314 314 314 314 316 317 318 320 321 322 323 324 326 329 332 335 334 334 334 336 337 336 331 329 327 327 326 326 327 331 333 332 334 332 331 330 330 331 333
312 312 314 314 312 313 313 313 314 316 317 318 318 321 322 322 323 325 326 328 332 335 335 333 334 337 336 333 330 327 327 326 326 327 330 332 333 333 332 332 328 328 328 329

GFSCGP_850_thetae_027.txt.gz
Theta_e
310 309 312 313 313 316 319 322 323 323 323 324 324 325 325 326 327 326 327 327 328 328 329 327 327 328 329 327 327 330 329 330 333 337 341 343 341 342 343 340 334 331 332 333
311 310 311 314 315 315 317 317 318 320 323 323 324 324 325 326 326 326 327 327 328 329 328 327 327 328 329 328 331 332 332 335 336 339 343 344 343 343 342 339 333 332 333 333
311 313 313 313 315 316 315 316 316 317 318 320 321 321 322 323 325 327 328 328 328 328 328 328 327 327 328 330 331 332 333 335 338 344 346 344 344 342 338 335 332 332 333 333
307 310 315 314 313 316 316 316 317 317 318 318 320 322 322 322 324 325 326 327 328 327 326 326 327 327 331 332 333 333 336 342 345 346 344 342 341 337 333 333 333 333 333 333
307 308 310 313 314 315 316 317 317 318 318 318 320 320 322 322 325 324 323 326 327 327 327 328 327 328 332 333 333 333 335 340 343 344 343 339 337 334 334 333 333 332 332 332
310 310 308 308 310 315 315 316 317 317 317 318 319 320 321 321 322 324 324 326 326 326 327 328 332 334 336 335 334 335 336 340 343 342 339 335 332 332 333 333 331 332 332 331
314 314 310 310 309 310 312 313 315 317 318 319 318 321 322 321 323 324 323 325 327 328 330 332 336 337 337 336 336 336 338 341 340 335 334 333 333 333 332 332 331 332 330 329
312 312 314 315 309 309 310 313 315 318 319 318 319 320 321 322 323 324 324 326 331 335 335 337 338 338 337 337 336 336 337 337 335 335 333 333 334 331 330 330 331 331 330 327
313 313 313 312 312 311 310 310 315 316 318 318 319 319 320 320 321 324 324 327 337 338 338 338 338 337 338 338 336 335 336 335 334 334 333 333 329 332 332 332 330 327 327 327
311 311 310 310 311 312 314 312 315 315 317 319 321 320 321 323 324 323 325 328 337 338 338 337 337 337 338 337 336 335 334 332 333 332 333 333 334 334 331 330 329 327 329 330
309 310 310 310 311 312 315 312 312 314 315 319 321 321 322 324 324 324 325 335 336 337 337 336 337 337 337 337 337 336 334 333 333 332 333 332 331 331 332 330 330 328 329 329
311 313 315 313 312 312 313 314 312 314 317 318 319 321 327 329 326 325 333 335 336 336 336 337 337 337 337 337 336 335 334 333 332 333 333 331 330 330 331 330 329 327 328 327
312 312 314 315 314 313 314 317 315 315 318 317 320 320 321 324 327 327 334 335 336 336 336 337 337 337 337 336 336 335 334 332 332 332 331 330 330 330 330 330 328 327 327 327
311 311 312 315 316 316 318 319 319 316 317 318 320 321 320 323 326 333 335 335 335 335 336 336 337 336 336 336 335 335 332 331 332 331 331 329 330 330 330 329 328 328 327 327
311 314 313 313 315 315 315 316 316 318 318 319 320 322 322 327 335 335 335 335 335 335 335 336 336 336 336 336 335 332 331 330 330 332 331 330 330 330 329 329 328 328 328 327
312 316 314 316 314 315 315 314 315 317 319 320 318 321 324 327 335 334 334 334 334 335 335 335 336 336 336 335 333 329 330 329 330 331 330 330 330 329 329 328 329 329 327 327
312 312 314 315 316 315 316 314 313 317 319 321 318 320 328 331 333 332 333 334 334 334 335 335 335 336 336 334 330 328 329 329 330 331 330 330 330 329 328 328 327 327 328 327
309 310 314 319 317 316 314 319 320 319 321 328 322 323 330 330 330 329 332 333 333 335 334 335 335 335 334 332 329 327 328 328 329 331 330 330 331 329 328 328 328 328 328 328
309 311 314 320 319 318 318 319 321 323 330 329 328 328 328 329 328 328 329 330 332 334 334 334 334 335 333 331 328 328 328 328 329 331 330 331 331 330 329 329 329 329 328 328
311 311 314 318 319 323 317 316 316 319 332 327 327 328 330 329 331 329 328 329 330 333 334 334 334 334 332 330 327 328 328 327 329 332 331 332 330 330 330 330 330 330 330 329
315 315 316 317 319 318 314 314 316 328 328 323 325 326 327 327 326 328 328 329 331 332 335 334 334 333 332 329 327 326 327 327 330 332 331 331 331 330 331 331 331 329 329 329
314 316 317 317 317 320 311 315 321 320 320 322 323 324 327 328 328 329 330 330 330 332 335 334 334 333 332 329 327 326 327 327 329 331 332 332 331 330 331 329 330 331 329 328
315 313 313 315 314 311 310 315 314 316 318 319 322 323 324 327 328 329 332 332 331 332 333 336 334 333 332 330 327 325 327 326 328 331 332 332 331 331 331 329 330 330 328 326
312 312 313 315 313 313 313 313 313 314 318 318 320 322 323 324 326 327 329 332 334 333 332 334 335 334 332 330 328 324 328 326 328 330 332 332 331 332 331 330 329 328 328 327
312 312 312 312 313 313 313 312 313 314 317 318 318 320 322 322 324 325 325 327 331 334 335 333 337 335 334 332 329 325 328 325 327 329 333 332 332 333 331 330 332 330 331 330
311 312 313 312 312 312 312 313 313 313 315 317 318 319 321 322 323 323 324 325 327 333 335 335 335 335 334 333 330 326 328 325 326 329 333 333 331 334 332 328 333 333 331 329

GFSCGP_850_thetae_030.txt.gz
Theta_e
308 305 307 310 311 313 316 318 320 320 320 321 322 322 322 323 324 323 324 325 325 327 327 327 327 328 329 327 328 328 328 327 329 329 333 337 342 343 343 342 341 336 335 333
306 307 308 309 311 312 313 314 316 316 317 320 321 321 322 322 323 323 324 324 325 326 326 327 327 329 328 328 328 328 327 327 329 330 334 341 344 344 342 340 339 336 334 332
307 311 311 309 310 312 313 313 315 316 316 316 315 316 317 318 319 320 322 323 325 326 327 328 328 328 327 327 327 327 327 328 331 332 337 342 344 343 343 341 339 338 332 332
305 306 307 310 310 310 313 314 315 314 315 315 317 316 316 317 318 319 320 323 324 324 324 325 327 328 328 327 329 330 331 332 335 337 342 344 343 343 342 341 337 334 332 332
306 306 307 309 310 313 311 313 315 315 315 314 315 316 317 318 319 320 320 321 322 324 325 326 326 326 327 329 330 333 334 335 339 343 345 345 343 342 338 332 332 332 333 333
307 307 307 306 307 308 309 313 313 313 313 314 315 315 316 316 318 320 320 322 323 323 324 325 325 326 329 331 334 335 336 343 345 345 344 342 339 335 334 333 334 333 332 332
311 312 312 312 308 308 307 308 311 313 314 317 315 316 317 317 317 318 319 320 323 324 324 326 329 329 332 335 336 335 338 343 344 344 341 337 337 333 332 333 333 331 331 331
312 312 312 313 313 307 306 306 310 313 316 316 316 316 316 317 318 319 320 321 322 322 326 331 333 334 336 337 336 337 340 342 342 340 337 333 332 333 332 332 332 331 331 329
311 312 312 311 310 310 310 307 308 310 313 315 316 316 317 318 318 318 318 321 328 334 335 336 337 337 337 337 336 338 341 340 337 334 333 333 333 332 332 330 329 329 326 326
309 310 310 310 309 309 311 311 309 308 313 314 316 318 318 318 318 318 317 330 336 337 337 338 338 338 337 337 337 337 338 336 334 333 332 333 329 329 331 331 329 327 326 325
309 309 310 311 310 308 309 312 309 309 310 315 316 317 317 318 317 318 318 333 336 337 337 338 338 337 337 336 335 336 335 334 333 332 331 329 331 331 330 329 329 327 328 328
311 310 312 310 309 311 311 310 311 311 310 313 314 316 317 318 318 322 325 334 335 336 337 337 337 337 336 334 335 334 333 332 330 330 330 330 330 330 330 329 329 327 328 327
310 309 310 308 311 311 313 314 317 313 311 312 315 315 317 317 319 330 333 334 335 336 337 337 337 336 336 336 334 332 331 331 329 331 332 330 329 331 330 330 327 325 327 327
311 310 310 308 311 312 316 316 315 315 314 313 313 315 317 317 317 331 333 334 334 336 337 337 336 336 336 335 334 333 331 330 330 331 330 329 329 330 329 329 326 326 326 326
309 312 311 311 312 312 314 316 315 315 315 317 317 318 317 317 318 326 333 333 334 335 336 336 336 336 336 335 334 333 330 331 331 330 330 329 330 329 329 329 327 327 327 326
309 311 313 312 313 313 315 315 315 314 314 315 317 320 318 316 326 332 333 333 335 335 335 336 336 336 336 335 334 332 330 331 331 331 329 329 329 329 329 328 327 327 327 327
311 312 312 312 314 315 316 315 315 317 315 317 318 319 320 331 334 333 333 334 334 335 335 336 335 336 336 335 332 330 330 329 330 330 329 329 328 328 328 327 328 328 327 327
309 308 311 313 314 316 318 317 320 323 317 324 328 327 328 330 329 331 332 333 334 334 335 335 335 336 335 334 330 328 329 329 330 330 329 329 329 328 327 327 327 327 327 326
308 309 310 315 318 317 320 316 319 322 324 326 325 327 328 328 324 329 331 331 334 335 335 335 335 335 335 334 329 327 329 329 329 329 330 330 329 328 328 328 328 327 327 327
308 309 311 314 317 321 316 312 312 315 328 324 322 324 327 326 329 329 329 329 332 334 334 335 335 335 335 332 327 328 328 328 328 330 330 330 329 329 328 329 329 328 328 328
314 313 314 313 318 317 311 310 313 327 327 320 320 321 327 328 328 327 329 330 331 334 334 334 335 335 334 330 327 328 327 327 329 330 330 330 329 329 329 330 330 330 330 330
313 313 317 317 316 318 307 310 320 317 317 319 320 322 328 328 328 330 330 331 332 334 334 334 334 334 332 329 327 327 327 326 329 331 331 331 330 330 330 330 330 329 329 329
314 312 312 313 313 309 305 311 314 314 315 316 317 320 326 326 325 327 330 332 333 334 334 334 334 333 331 328 327 326 325 328 328 331 331 331 331 330 330 329 329 330 328 328
311 311 312 313 312 310 312 313 314 315 314 315 317 319 323 324 324 324 325 331 333 333 335 334 334 332 329 328 327 324 325 327 327 331 332 331 330 330 330 328 328 327 326 328
311 310 312 311 312 313 312 312 313 314 316 315 316 321 322 323 323 323 324 328 330 334 333 335 333 332 330 328 327 324 325 327 326 330 332 331 331 330 331 328 327 327 327 327
309 310 311 313 312 312 312 313 313 314 315 316 316 320 322 322 322 323 324 325 327 329 334 335 335 333 332 329 327 324 326 326 326 330 331 331 331 331 332 327 328 330 331 329

GFSCGP_850_thetae_033.txt.gz
Theta_e
306 304 307 309 310 312 312 314 316 317 317 318 318 319 319 320 321 321 322 323 323 323 324 325 325 325 326 326 326 328 328 328 327 327 330 331 332 332 337 341 342 341 341 340
305 306 308 308 309 310 310 311 312 314 315 315 317 318 317 318 319 321 321 321 322 323 324 324 324 326 326 327 328 328 327 327 327 328 329 331 332 336 341 343 342 342 341 338
305 307 308 308 308 309 310 311 312 313 314 314 314 315 315 315 315 317 320 321 322 322 322 322 323 325 324 325 328 328 327 328 327 328 331 333 338 343 343 342 342 340 338 335
304 305 306 306 308 307 307 311 312 314 313 314 314 315 314 315 315 315 316 318 318 319 320 321 322 323 324 325 327 327 327 327 328 330 335 338 337 342 343 342 341 338 336 332
305 305 305 306 307 308 309 308 310 313 313 312 313 312 314 314 314 314 315 316 317 318 319 320 320 323 324 325 327 327 328 329 332 334 338 340 342 343 342 341 340 336 334 332
307 307 306 305 306 306 307 308 309 309 311 312 313 313 314 313 314 314 316 318 320 321 321 322 322 323 324 325 326 328 331 334 336 339 341 344 344 343 342 341 332 332 332 332
311 306 308 307 306 307 306 305 309 310 311 313 313 313 314 314 315 315 315 317 319 319 320 321 323 324 325 327 333 334 336 336 341 343 345 344 343 342 338 333 331 332 333 333
312 312 311 312 310 310 305 304 307 312 314 312 313 315 315 314 315 316 316 317 318 319 320 321 322 326 329 335 338 338 339 340 343 344 342 340 337 334 332 332 332 332 331 331
312 311 311 311 310 309 309 305 306 306 309 310 313 313 314 315 315 315 314 316 317 318 320 326 331 333 337 338 337 337 339 342 343 341 339 336 335 332 332 332 332 331 329 328
309 310 310 310 309 309 308 309 306 305 310 312 313 314 315 315 315 315 315 315 319 324 331 334 336 337 338 337 338 339 341 342 340 336 334 333 332 332 332 331 329 329 326 325
308 308 310 309 308 306 308 309 309 306 306 311 313 314 313 315 315 315 314 317 320 331 335 337 338 338 338 339 340 340 339 337 334 333 333 332 331 328 329 329 328 328 326 326
309 308 311 309 307 308 309 309 310 309 310 309 311 312 314 312 313 314 317 324 327 334 337 338 338 338 338 339 339 339 336 334 333 332 331 327 325 328 328 329 328 327 327 326
309 307 309 307 310 310 311 311 310 310 309 312 310 311 313 312 313 323 330 332 333 335 337 338 338 338 337 337 337 335 334 333 331 328 326 328 329 329 330 329 328 326 326 327
310 309 309 310 308 309 310 312 315 314 313 313 313 312 313 313 315 315 324 333 333 336 337 338 337 336 335 336 335 334 333 329 327 327 330 329 329 330 330 328 324 325 326 326
308 310 309 310 310 311 312 312 312 315 314 315 315 315 314 315 316 317 320 333 334 335 336 337 336 335 335 334 332 331 329 326 327 330 330 329 330 330 329 327 326 326 326 326
306 308 311 311 311 311 313 313 313 314 315 314 314 314 315 316 319 328 328 332 334 335 335 336 335 335 335 333 332 328 328 328 330 331 330 329 329 329 329 328 327 326 326 326
307 309 309 309 309 313 313 314 314 315 313 313 316 316 319 323 328 330 330 333 334 335 335 336 335 335 334 333 330 328 329 330 331 331 330 328 328 329 328 327 326 326 326 326
306 307 308 311 311 312 314 317 315 315 316 315 318 323 325 325 328 329 330 333 334 335 335 335 335 335 334 332 329 328 330 330 330 330 329 328 327 328 327 327 327 327 326 326
306 307 310 312 314 315 316 315 315 316 320 321 322 322 323 327 326 329 330 331 331 334 335 335 334 334 334 330 327 329 330 329 329 329 329 329 328 327 328 327 328 327 327 326
309 307 309 312 313 316 318 312 310 312 319 318 320 320 321 323 327 326 328 328 332 332 334 335 334 334 334 331 329 328 329 328 330 330 329 329 328 327 327 327 327 327 327 327
313 311 311 311 313 316 311 308 307 320 321 316 318 319 320 325 325 327 329 330 331 331 333 335 335 334 334 333 329 327 328 329 328 329 329 329 328 328 328 328 329 328 328 327
312 312 316 314 316 316 307 306 318 316 315 318 316 316 321 325 328 329 330 331 332 332 333 334 334 335 335 333 328 327 328 328 328 330 330 329 329 329 329 329 330 330 330 329
313 311 311 311 312 305 303 305 312 315 316 316 316 316 321 323 326 329 331 332 332 333 333 334 334 334 335 334 328 327 327 327 329 330 330 330 329 329 330 330 329 329 329 329
310 311 312 312 311 311 311 311 312 312 314 316 316 318 322 324 324 328 331 331 333 332 333 334 334 334 335 333 328 326 327 326 329 329 331 331 330 330 330 329 328 328 326 327
309 310 311 311 311 312 311 311 312 311 314 316 318 321 322 324 324 325 329 328 331 333 332 333 334 334 334 331 328 327 326 327 328 328 331 331 331 330 329 327 327 327 326 327
308 310 312 312 310 311 311 311 313 312 315 315 317 317 320 323 323 324 326 330 332 332 333 333 333 334 333 331 328 326 325 328 328 327 330 331 331 330 330 327 326 327 328 327

GFSCGP_850_thetae_036.txt.gz
Theta_e
306 304 305 308 309 311 311 312 314 315 316 317 317 318 318 318 318 319 320 320 321 321 322 322 322 324 324 324 324 326 326 327 326 328 328 328 327 328 329 333 336 339 340 340
303 303 306 307 308 309 309 310 310 311 312 313 313 313 313 313 314 317 318 319 319 321 321 321 322 322 323 324 323 324 324 327 328 327 328 328 327 328 332 337 339 341 341 340
303 304 306 306 307 307 308 309 310 311 312 312 312 314 315 314 313 315 315 316 317 318 318 319 321 322 322 322 323 323 324 326 328 327 328 327 328 332 336 338 341 342 341 341
303 303 305 305 306 307 307 309 311 312 312 312 312 314 314 314 314 313 314 315 316 317 317 318 319 320 321 321 322 322 325 326 327 327 327 328 330 333 333 338 341 342 342 338
307 304 304 305 305 307 307 307 308 311 310 311 311 311 313 312 312 311 312 313 314 315 315 316 316 317 318 319 320 323 326 327 327 328 329 332 334 337 339 341 342 341 338 333
310 308 304 304 305 306 307 308 307 307 308 310 311 311 312 311 311 312 311 313 315 315 317 318 320 321 321 321 322 324 327 328 329 331 334 336 338 340 342 341 337 336 333 332
311 308 308 305 305 305 305 304 306 308 308 308 310 311 312 310 311 312 313 314 316 317 317 318 318 319 321 323 324 325 330 331 335 336 339 342 343 342 342 341 339 332 331 331
314 311 306 308 305 304 304 303 305 312 312 309 310 313 312 312 312 313 313 314 316 317 318 318 319 321 322 324 327 331 336 337 338 342 344 344 343 342 341 337 331 331 332 332
313 312 310 310 310 307 307 304 306 305 307 306 309 310 311 312 313 312 312 314 316 318 319 320 320 325 329 334 338 339 338 338 343 344 343 343 341 337 333 332 332 332 331 331
310 310 310 310 311 309 307 306 305 302 307 310 310 311 312 312 312 314 313 312 319 322 319 327 332 334 337 340 339 339 339 341 342 341 339 337 335 332 331 332 331 331 329 326
308 308 310 308 308 306 307 307 307 303 304 310 312 311 310 312 312 312 313 324 327 325 324 334 336 338 339 338 339 340 340 340 340 338 334 333 332 331 331 330 329 329 326 324
309 308 310 309 307 307 307 307 308 309 309 306 307 308 309 310 311 312 314 319 331 329 334 338 338 338 338 339 340 341 341 339 336 334 332 332 331 328 328 328 327 327 325 325
309 308 309 307 309 309 309 310 308 307 307 309 309 308 309 310 312 313 314 321 332 335 338 338 338 338 339 340 340 339 337 335 333 332 330 326 325 328 328 328 327 327 326 326
309 308 309 306 308 308 309 310 310 312 312 309 310 310 311 311 312 313 314 318 332 335 339 338 338 338 339 339 338 336 334 333 331 327 325 327 328 330 329 328 327 326 326 327
306 310 308 308 309 310 310 310 310 312 312 314 313 314 313 312 312 313 316 326 332 335 336 337 338 338 338 337 335 334 333 331 327 325 328 328 330 330 330 325 323 326 326 326
308 310 309 309 309 310 311 310 310 311 311 312 313 314 313 312 313 320 323 327 332 335 336 337 337 336 336 335 334 333 331 325 325 329 329 329 330 329 329 326 326 326 325 325
309 310 307 307 308 309 309 309 311 310 311 312 313 312 312 317 320 320 322 329 331 334 336 337 336 335 335 334 332 330 325 326 329 329 330 329 330 329 329 327 326 325 325 325
309 309 308 308 308 310 309 314 315 311 311 311 311 312 317 322 323 325 327 330 332 334 335 336 335 334 334 330 329 326 324 328 330 331 331 331 327 328 328 326 325 325 325 326
306 307 308 308 310 312 311 314 314 314 315 314 319 320 321 321 323 325 329 330 333 334 335 336 334 334 333 331 326 325 327 329 330 331 331 328 326 328 327 326 327 326 326 326
307 307 308 311 311 312 315 306 309 311 316 318 319 320 320 319 325 325 328 330 331 334 335 335 334 334 333 332 326 328 329 330 330 329 329 328 327 326 327 326 327 327 327 326
312 310 309 310 311 312 311 308 308 319 317 316 318 317 318 320 322 325 328 329 331 332 334 335 334 334 333 329 327 328 329 329 329 329 329 328 327 327 327 326 326 327 327 327
312 311 313 312 313 315 305 307 315 314 310 316 316 317 317 317 322 326 329 330 332 331 332 334 334 334 332 329 327 328 328 328 328 330 329 328 328 328 328 328 328 328 328 327
311 309 310 309 311 307 303 304 305 310 311 316 316 317 317 319 323 328 329 330 331 332 332 334 334 334 334 333 328 326 327 328 328 330 329 329 329 329 329 329 329 330 329 329
309 310 311 311 310 311 308 309 309 313 314 316 318 319 321 322 324 329 329 329 332 331 332 333 334 334 334 334 331 326 326 328 327 329 329 329 329 329 329 330 330 329 329 329
309 308 310 311 310 311 310 309 312 312 316 316 320 321 321 322 327 328 327 329 331 332 331 332 333 334 334 334 333 328 326 327 327 328 330 330 330 329 329 329 328 328 326 327
308 310 312 313 310 311 311 312 310 312 315 315 316 318 319 321 328 328 327 330 330 332 332 332 333 333 334 334 333 330 326 326 327 328 328 330 330 330 329 326 327 327 327 327

GFSCGP_850_thetae_039.txt.gz
Theta_e
307 307 308 309 311 313 314 314 316 317 318 319 319 320 321 320 320 321 321 321 321 322 322 321 320 320 320 321 321 324 323 323 323 323 325 326 327 327 328 328 329 333 335 337
308 308 307 308 309 310 312 313 314 314 315 316 319 320 319 318 318 318 319 320 320 320 321 320 320 320 321 321 322 322 323 322 322 323 326 326 327 328 328 329 332 334 337 340
308 309 308 307 308 309 311 313 314 314 314 315 316 317 318 319 318 318 318 318 318 318 319 319 319 320 320 320 322 322 321 322 322 322 327 327 328 328 329 331 334 337 340 340
307 308 307 308 307 308 310 310 311 313 314 316 316 318 318 318 318 318 317 317 317 318 318 318 318 318 318 318 319 320 319 320 320 322 327 327 327 329 329 332 336 340 341 340
310 309 308 308 307 308 308 310 310 310 312 313 314 315 316 317 317 317 317 316 316 316 317 317 316 315 316 316 317 318 319 320 322 326 327 327 328 329 334 335 339 342 341 339
311 310 309 308 307 307 308 309 310 311 312 313 313 313 315 316 317 317 317 316 316 316 316 315 316 317 319 319 320 321 321 322 325 327 327 329 332 334 337 339 341 342 340 337
311 311 311 310 308 307 307 310 310 310 311 313 312 313 314 316 315 316 316 317 317 316 317 317 317 317 318 318 321 321 323 325 328 330 333 336 338 339 340 341 341 339 336 332
315 312 310 310 310 307 308 308 310 309 311 311 311 313 314 315 315 315 316 316 316 318 319 319 319 317 319 320 322 324 325 330 333 337 340 340 342 342 341 341 340 332 331 330
312 312 311 311 311 308 308 308 309 310 311 311 311 312 313 313 314 315 315 318 322 323 325 324 321 321 321 322 326 329 333 338 339 341 342 342 342 341 341 336 331 331 331 331
310 312 311 309 309 311 310 309 310 310 310 311 312 312 313 316 315 318 319 320 321 327 331 329 326 327 331 334 337 340 339 340 342 342 342 342 341 338 333 331 331 331 331 331
310 310 310 309 310 311 312 311 310 310 310 312 314 315 316 316 316 316 317 316 320 329 330 333 338 337 340 341 341 342 342 343 343 342 341 336 332 331 331 331 331 331 329 327
310 311 311 309 309 309 309 310 311 312 311 310 311 312 314 315 315 316 316 315 316 330 333 334 339 342 342 342 343 343 343 341 340 338 336 333 331 331 331 330 329 328 326 324
310 310 310 308 311 310 309 310 310 312 312 313 312 312 314 314 314 315 315 315 319 331 333 334 337 339 339 340 341 341 340 338 335 332 331 331 330 327 328 327 327 326 326 325
309 310 309 310 309 310 310 310 310 312 313 313 313 313 313 313 314 315 314 316 320 330 334 334 335 338 339 339 338 338 336 334 332 331 328 325 328 328 329 328 327 327 326 327
309 310 309 309 309 310 310 309 310 311 311 312 312 313 313 314 315 315 315 316 316 320 335 335 335 338 338 338 337 335 334 332 330 325 326 329 329 329 329 327 326 326 327 326
309 311 311 311 309 309 309 308 309 310 311 311 311 312 313 313 313 313 314 315 316 323 335 335 335 337 337 336 335 334 332 330 323 327 328 329 329 329 327 324 325 326 326 325
310 309 310 309 308 308 309 309 309 310 311 311 312 312 312 313 314 315 317 319 321 327 335 338 337 337 337 336 334 334 332 325 325 328 329 329 330 329 326 325 326 325 325 325
309 310 310 310 309 309 309 313 313 315 315 315 312 312 312 313 313 317 318 319 325 330 335 338 338 337 337 335 334 333 327 327 331 331 329 329 331 329 328 326 325 325 325 325
307 309 309 310 310 309 309 313 312 312 314 315 314 313 313 312 316 319 318 321 330 333 335 337 337 336 335 334 333 329 325 330 332 333 332 331 328 329 328 326 326 326 325 326
308 308 309 309 310 310 315 311 310 308 315 316 315 315 317 319 322 323 328 330 331 333 336 337 337 335 333 332 330 326 328 331 332 333 333 329 327 328 327 326 326 326 326 326
313 310 310 311 312 312 310 307 307 315 317 311 316 319 319 320 320 324 324 327 331 332 335 336 335 335 330 329 326 328 330 331 332 332 331 328 326 327 327 326 327 326 326 326
312 313 314 312 312 315 308 306 310 310 307 308 311 317 318 319 320 321 323 328 332 332 334 336 335 335 331 328 326 330 329 331 330 331 329 328 327 327 327 326 326 327 327 327
314 312 312 310 312 309 308 303 304 307 309 312 314 316 319 320 321 322 327 330 331 333 334 335 335 333 332 329 326 329 329 329 329 331 328 328 328 327 328 328 328 328 328 328
311 310 311 309 311 309 310 306 308 310 312 314 317 319 320 321 323 325 328 330 331 333 333 335 335 333 329 326 324 326 328 328 329 329 328 328 329 328 328 329 329 329 329 329
311 309 311 310 310 310 309 311 309 312 314 315 317 319 320 322 325 328 329 330 332 331 332 334 334 333 331 328 325 325 327 328 328 329 329 329 329 329 329 330 329 328 327 328
310 310 311 312 310 311 310 310 309 311 314 315 315 318 319 320 325 328 329 329 331 331 331 332 333 334 334 334 331 326 326 327 327 328 330 330 330 330 329 329 328 327 327 327

GFSCGP_850_thetae_042.txt.gz
Theta_e
310 311 311 311 312 312 313 315 318 318 319 320 321 322 323 323 323 324 324 324 325 325 324 325 325 325 326 326 321 320 320 321 323 323 322 326 328 336 340 342 336 338 337 337
310 311 311 311 310 311 312 314 316 318 317 319 320 322 322 323 323 323 324 324 324 324 324 324 324 325 325 326 326 321 321 321 322 321 321 331 339 341 342 341 335 335 337 338
310 310 310 310 310 310 310 312 313 315 317 318 319 321 322 322 322 322 322 322 322 322 322 322 323 323 324 324 324 322 320 320 320 320 321 323 336 331 330 332 339 337 336 338
310 310 310 310 310 311 310 310 311 313 316 318 319 321 321 321 322 322 321 321 321 321 321 321 322 322 323 324 325 325 319 319 319 319 320 324 336 336 332 337 333 336 339 340
310 310 311 311 311 310 310 310 310 313 314 317 317 319 319 321 321 322 322 321 320 320 320 320 320 320 321 321 322 323 322 317 318 319 321 328 339 343 343 344 337 340 341 340
311 311 312 312 312 312 310 310 310 311 314 316 317 318 319 320 320 321 321 320 319 319 319 319 320 320 320 321 323 323 319 318 319 319 324 331 343 344 344 344 340 342 342 340
312 312 313 312 313 312 310 309 311 312 313 314 315 316 318 319 319 319 320 319 319 320 321 320 322 322 322 324 326 332 331 331 322 325 328 333 340 338 343 343 345 345 345 344
314 313 311 311 314 312 310 310 311 312 313 313 313 315 317 317 318 317 317 319 319 321 324 325 326 324 323 324 331 330 340 342 335 336 340 340 338 346 347 346 345 344 342 339
312 311 311 312 313 313 312 311 311 311 312 315 313 314 315 316 318 318 319 319 323 324 327 331 331 330 330 332 337 339 343 344 345 345 342 342 347 347 345 344 342 338 337 337
310 313 311 311 311 312 311 311 311 311 315 314 314 315 315 317 317 317 321 321 320 323 331 333 334 337 337 338 339 344 345 345 345 345 345 345 344 342 341 337 337 337 337 337
310 311 311 311 312 311 312 311 314 313 314 313 314 315 317 319 320 320 320 319 320 328 335 336 338 339 342 343 344 345 345 345 345 344 344 343 342 340 337 337 337 334 332 333
311 312 312 311 311 311 311 312 313 317 314 314 315 317 319 320 319 319 319 318 319 326 335 336 337 339 344 344 344 345 345 344 344 343 342 340 338 337 338 337 336 334 333 332
311 312 312 310 313 312 311 310 311 313 315 318 315 315 319 318 317 317 318 318 318 319 331 337 337 341 344 344 344 344 343 342 340 339 338 337 337 337 336 335 333 333 332 331
309 312 311 313 311 310 310 311 311 312 314 313 313 315 316 317 317 317 317 317 317 317 326 337 337 341 343 343 342 342 340 339 337 336 336 336 335 334 334 333 333 332 331 331
310 313 311 311 311 310 310 310 310 311 312 313 313 314 315 316 316 317 316 315 316 317 323 337 337 339 340 341 340 339 337 336 335 333 332 332 333 334 334 333 333 331 331 332
311 314 312 312 311 311 311 311 311 310 311 312 312 313 313 313 312 313 313 315 316 318 321 336 337 338 340 339 338 337 335 334 331 331 331 333 333 333 333 332 331 331 331 331
311 311 312 312 310 311 311 310 311 311 311 311 312 314 314 314 314 314 313 314 317 319 322 336 337 339 339 338 337 335 334 330 330 331 333 333 333 333 331 330 330 330 331 331
311 311 312 313 312 314 310 312 313 314 314 314 315 315 315 315 313 313 313 315 318 320 323 337 338 339 338 338 336 335 331 329 330 332 332 333 333 331 330 329 330 331 326 329
307 310 312 312 313 311 311 311 312 314 315 313 315 316 317 315 313 314 314 315 320 321 329 337 340 339 338 336 335 333 328 329 331 331 332 333 331 331 330 330 330 326 326 330
310 308 313 313 315 314 314 313 311 310 316 317 318 319 318 316 315 316 317 328 330 332 336 338 339 339 337 335 334 329 330 330 331 332 332 332 331 331 331 330 330 330 329 331
314 312 312 312 315 313 312 310 308 316 317 311 312 313 315 320 318 318 320 324 327 334 337 339 339 337 336 335 332 328 330 331 332 333 332 331 331 331 330 331 330 330 330 330
315 316 317 317 316 318 310 307 313 312 308 308 310 312 316 319 319 319 320 324 327 334 337 339 338 336 335 334 329 327 331 332 333 333 331 331 331 330 330 331 331 331 331 331
316 313 313 312 315 311 310 307 305 306 306 308 312 314 317 318 320 321 323 325 329 335 337 338 337 336 334 331 327 329 332 332 332 332 332 332 332 332 332 332 330 330 329 330
312 312 311 310 312 311 311 309 309 309 310 311 315 316 318 320 322 323 325 329 333 335 337 338 337 335 333 328 328 331 332 332 333 332 332 333 332 332 332 332 332 332 332 332
312 312 310 311 311 311 309 309 308 310 312 315 318 320 322 322 324 326 328 331 333 335 337 337 336 333 330 328 328 331 332 332 332 332 333 333 332 333 332 333 332 332 331 332
312 312 313 313 311 311 310 310 309 310 312 314 316 318 320 322 325 329 331 333 334 335 337 337 334 330 328 327 328 331 331 332 332 333 333 332 331 332 332 332 329 328 329 328

GFSCGP_850_thetae_045.txt.gz
Theta_e
313 313 315 316 315 315 315 315 315 317 319 320 321 322 323 324 324 324 326 327 328 328 328 329 329 329 329 328 328 329 329 325 325 330 333 332 335 339 344 345 344 345 346 345
313 313 314 313 313 313 313 313 315 315 316 319 321 321 322 323 325 324 325 326 327 327 327 328 328 327 327 327 328 328 327 327 325 333 324 329 334 339 343 345 345 346 346 345
312 312 312 312 312 312 313 313 313 314 316 317 319 321 322 323 323 322 323 324 325 326 326 327 327 326 326 326 327 328 329 327 325 323 332 335 330 340 344 346 348 346 345 343
311 311 311 311 311 312 313 313 313 313 313 315 317 321 322 322 323 324 323 324 324 324 325 325 325 325 325 325 326 326 327 326 328 322 325 334 340 342 346 346 345 343 344 346
310 311 311 311 312 313 313 313 313 313 313 314 315 318 319 321 323 323 324 323 323 323 323 323 324 324 324 324 324 325 325 328 328 330 322 334 339 343 345 345 346 343 342 340
312 313 313 313 314 314 313 313 314 313 313 314 314 317 318 320 321 322 323 323 323 323 323 323 323 322 323 323 324 324 325 328 331 325 321 327 340 345 347 347 344 344 344 342
312 312 313 314 314 315 314 314 314 312 314 313 314 315 317 319 321 322 322 322 322 322 322 322 322 322 323 324 324 325 327 328 329 336 339 335 342 347 347 348 342 344 344 343
313 313 312 313 313 314 315 315 313 311 312 313 316 316 316 319 321 321 320 319 321 321 321 322 323 323 325 325 325 328 333 339 343 344 346 348 349 349 349 346 347 346 347 346
313 312 312 312 313 313 314 316 314 312 312 313 316 316 318 317 319 320 321 320 321 324 325 327 329 329 330 326 326 331 338 342 345 346 347 349 349 348 348 349 346 345 344 344
311 312 311 312 313 314 314 314 318 313 313 312 314 316 317 317 317 320 321 322 322 322 325 330 331 331 334 331 334 341 344 346 347 349 349 349 350 350 349 347 345 342 341 340
311 312 312 311 312 314 314 314 315 315 315 314 315 318 318 319 318 319 321 322 322 326 333 337 339 341 340 339 340 344 346 347 347 348 348 347 347 346 346 343 341 341 339 338
311 313 313 311 312 313 314 313 313 318 316 315 315 318 318 319 323 319 322 321 321 322 335 338 338 340 342 342 345 345 346 346 347 346 345 345 345 344 342 341 340 339 337 336
313 312 314 311 312 314 315 314 312 314 315 318 317 318 318 320 322 321 321 320 320 320 331 339 341 345 344 344 345 345 346 346 345 346 345 343 342 341 340 339 337 336 335 334
311 313 312 315 312 312 313 313 314 313 315 314 313 314 316 316 317 320 319 320 318 319 326 340 341 344 344 344 343 344 344 343 343 341 341 340 340 339 337 336 335 334 334 333
312 316 313 312 312 311 312 311 311 311 312 313 313 313 313 316 317 318 317 317 316 319 323 340 339 343 343 343 343 342 341 341 340 339 338 338 337 335 334 334 334 334 333 332
312 314 313 313 312 312 312 312 312 311 312 312 311 312 312 313 314 315 315 315 316 319 321 336 339 340 341 342 341 340 339 338 337 336 335 334 333 333 334 334 333 333 331 331
312 313 313 313 312 312 312 312 312 312 312 312 312 312 313 314 315 316 316 316 316 317 321 328 339 339 340 339 339 338 337 335 333 332 332 333 333 334 333 333 332 331 331 332
311 313 313 314 313 314 312 313 314 314 315 315 316 315 316 316 315 315 315 316 316 317 321 323 338 339 339 339 337 337 334 332 332 332 332 333 333 333 333 332 331 330 333 332
311 311 315 317 315 313 312 313 315 314 316 315 315 316 315 315 316 318 315 315 316 319 328 324 338 339 338 338 337 334 332 331 331 331 332 332 332 331 330 331 329 332 333 331
313 310 313 314 316 316 313 314 311 313 316 316 315 317 320 320 322 318 316 317 326 328 333 336 339 339 337 338 335 332 330 331 331 332 333 332 332 331 331 329 332 332 333 333
315 316 315 315 317 315 314 311 309 317 316 313 312 315 317 321 322 322 321 323 324 328 332 337 339 339 338 337 335 330 330 331 333 333 332 332 332 330 330 331 330 332 332 332
318 316 318 316 317 321 313 310 312 313 310 309 310 312 315 317 319 320 322 322 324 328 330 338 338 340 337 336 332 330 331 333 333 333 333 332 331 331 331 331 332 332 333 333
316 316 314 313 317 313 312 311 310 310 308 309 309 311 314 317 318 319 321 323 326 328 332 337 339 336 336 334 330 330 332 334 333 333 331 331 331 331 331 332 333 333 332 333
314 313 314 312 312 313 311 311 309 310 309 309 311 313 315 317 319 321 323 325 327 330 337 338 336 336 335 332 328 331 333 333 333 332 331 332 332 333 332 334 333 333 331 332
314 314 315 314 313 311 310 310 310 309 309 310 316 319 320 319 322 324 326 327 329 334 336 338 336 335 333 328 329 331 333 333 331 332 332 332 333 333 334 333 333 332 331 331
314 314 315 315 311 310 311 310 310 307 307 311 313 317 321 322 324 326 330 332 334 335 337 338 335 333 328 328 330 332 332 334 332 332 332 333 332 332 332 331 329 330 329 331

GFSCGP_850_thetae_048.txt.gz
Theta_e
314 314 315 316 316 317 316 316 316 317 317 317 318 320 322 324 323 323 324 326 327 329 330 331 331 332 331 332 331 330 330 331 330 328 327 331 330 327 326 329 336 343 344 345
313 314 315 315 315 314 314 315 315 315 315 316 317 318 320 323 323 324 325 324 325 326 330 328 329 330 331 330 330 329 329 328 328 326 325 326 331 333 333 338 342 345 345 345
312 313 313 313 313 313 314 313 314 314 315 315 315 316 319 320 322 322 323 324 325 325 325 328 330 329 329 329 328 327 327 327 327 325 325 325 329 330 339 343 344 345 345 345
312 312 311 312 312 313 313 313 313 313 314 314 315 316 319 319 321 323 323 323 324 324 325 326 328 329 329 329 329 329 328 328 328 327 327 332 335 328 328 342 345 347 347 346
312 312 312 313 313 314 314 314 314 314 315 314 314 315 315 317 319 322 324 323 323 324 325 325 325 326 326 326 325 325 326 327 327 329 330 331 336 337 341 343 347 348 348 346
313 313 313 314 315 314 314 313 313 314 315 315 314 315 316 316 318 319 323 323 323 324 323 324 324 324 324 325 326 326 326 326 325 328 329 331 328 333 343 345 344 346 346 344
312 312 313 315 315 315 313 314 318 315 315 317 314 314 316 317 317 319 320 322 322 323 324 324 324 325 325 324 323 325 325 327 328 328 332 327 327 339 343 347 346 347 345 342
312 312 312 313 314 314 313 313 316 319 315 314 313 313 315 317 318 317 318 320 321 322 322 323 323 323 324 324 323 323 325 326 325 330 335 331 328 341 350 348 346 346 342 343
311 311 311 311 311 314 313 314 315 318 315 317 314 313 314 315 318 319 319 320 322 321 322 323 324 326 326 325 327 326 325 327 330 332 332 340 340 345 352 348 347 342 344 343
312 312 311 311 311 313 315 315 315 316 315 316 314 312 313 317 320 319 320 323 321 322 324 324 325 327 330 329 330 328 328 338 342 345 345 347 350 350 350 346 347 343 346 345
312 312 313 313 312 311 313 314 315 317 316 315 314 314 317 318 319 318 318 321 323 323 324 328 333 340 338 334 331 333 337 344 346 347 347 349 348 349 349 350 346 347 344 343
313 314 313 312 312 313 313 315 315 319 316 315 316 317 316 316 315 317 314 322 322 322 323 336 337 339 342 341 340 340 346 347 348 346 348 350 350 348 349 345 343 342 340 337
314 313 314 311 311 314 313 313 313 315 317 318 317 315 317 315 315 315 316 318 321 320 320 339 338 339 340 341 341 346 347 346 347 346 347 346 346 345 344 342 341 339 336 336
312 314 314 315 312 313 313 313 313 314 317 314 314 313 315 314 315 314 314 318 320 319 320 340 340 344 346 343 343 344 346 345 346 345 344 344 343 342 340 339 337 337 335 334
313 316 313 312 312 312 312 313 312 313 314 313 311 312 312 315 314 313 314 315 317 318 320 339 338 343 345 344 344 343 345 344 344 343 342 341 340 339 338 337 335 334 333 333
314 315 314 314 313 311 311 311 311 311 312 312 311 312 314 314 314 314 314 315 316 317 319 329 339 340 344 343 342 343 343 342 341 340 340 339 338 336 335 334 334 334 334 332
314 315 314 315 313 312 314 313 314 315 314 315 315 315 317 317 316 316 316 316 317 317 318 324 336 338 342 341 341 341 341 340 339 338 337 335 334 334 333 333 333 332 331 330
315 314 314 315 314 316 312 313 314 315 315 315 315 314 315 316 316 315 316 317 317 317 318 327 327 336 341 340 340 339 338 336 335 334 333 333 334 333 333 332 332 330 330 332
315 312 315 316 316 315 313 315 316 315 316 316 317 316 316 316 318 316 318 318 317 317 328 329 333 333 340 339 338 336 334 333 333 332 333 333 333 332 332 332 331 330 331 331
314 312 314 314 316 317 318 313 311 311 316 313 313 314 316 317 320 322 322 323 319 326 326 328 334 335 339 338 336 334 333 332 332 332 332 331 333 332 331 330 329 331 330 329
317 316 316 315 317 316 313 312 311 315 316 312 311 311 313 316 318 316 319 322 323 323 324 328 334 336 338 337 334 332 332 331 333 333 331 333 332 329 331 329 331 330 330 330
320 318 316 316 315 317 311 312 313 312 309 310 310 310 310 312 314 316 319 321 323 324 327 330 335 337 337 337 333 331 331 334 333 331 332 333 330 329 329 329 329 330 331 332
317 317 315 315 318 313 312 313 311 311 310 310 309 310 311 312 313 315 319 320 321 325 326 331 335 337 338 336 331 331 334 334 332 333 333 330 331 331 331 329 331 331 331 331
314 314 318 315 314 312 310 310 311 310 311 309 309 309 310 314 315 316 318 320 323 326 328 334 336 338 337 332 332 335 335 334 334 334 331 330 331 332 330 331 331 331 331 331
315 315 316 316 314 313 310 309 308 307 307 308 308 310 316 319 320 319 320 322 326 327 330 335 336 336 334 331 331 335 334 333 333 330 331 332 332 331 331 331 331 331 331 330
315 315 316 315 312 308 308 308 307 306 306 308 309 312 314 318 322 321 323 327 328 330 334 337 335 335 331 329 332 335 333 333 332 330 331 332 333 332 329 328 330 330 331 331

GFSCGP_850_thetae_051.txt.gz
Theta_e
312 310 309 311 312 313 313 313 313 314 314 313 313 313 314 315 316 319 320 321 321 324 325 327 329 329 330 331 330 332 331 331 331 332 331 330 329 330 333 332 331 329 329 335
310 309 312 312 312 312 312 312 312 313 313 313 313 313 314 314 314 316 317 320 321 323 325 325 326 327 330 331 331 331 332 331 331 331 331 329 328 328 331 330 326 327 334 340
309 311 312 311 310 311 310 311 311 312 313 313 312 312 313 313 314 315 316 318 321 322 323 324 324 327 329 329 331 334 332 331 330 329 329 328 327 326 326 327 336 335 340 343
310 310 311 311 311 312 313 313 313 314 313 312 313 312 312 313 313 314 315 317 319 321 321 322 324 324 326 331 331 331 330 329 328 327 327 327 326 324 321 325 334 342 342 344
309 310 311 312 314 314 314 314 313 313 312 312 312 312 312 312 313 313 313 315 316 319 321 321 323 325 326 327 331 331 329 328 327 327 327 326 326 326 324 333 330 345 344 345
309 311 312 313 313 313 313 313 312 312 312 312 311 313 313 313 313 313 314 315 316 317 320 322 321 323 324 325 327 326 326 326 326 325 325 325 325 328 332 337 338 343 346 347
310 310 313 314 314 313 312 310 312 312 313 314 312 311 312 312 313 314 314 315 316 316 317 318 322 322 323 324 325 324 324 324 325 326 325 325 326 329 330 339 345 344 345 347
309 310 310 315 313 311 312 313 316 316 314 312 314 315 312 312 313 316 316 316 316 316 316 318 322 323 322 323 323 324 324 326 325 325 326 326 326 329 329 337 343 344 343 343
310 311 311 311 310 310 311 313 311 315 314 318 315 313 313 315 315 315 315 315 315 316 317 319 321 323 324 324 325 325 324 323 323 324 326 329 329 329 330 338 343 346 345 346
312 313 312 311 311 311 310 311 312 312 316 316 312 312 315 316 316 314 314 314 315 318 320 320 322 326 326 327 327 327 324 323 324 326 326 328 336 336 332 332 346 347 345 340
310 312 313 311 311 310 311 311 315 314 316 317 316 314 317 315 314 314 313 313 314 317 320 321 324 324 324 326 328 329 329 326 326 328 335 336 335 337 346 350 349 345 343 343
313 313 313 312 311 311 314 314 312 316 316 317 316 313 315 313 313 312 313 313 314 316 321 321 319 332 335 337 334 332 329 330 334 339 343 343 343 346 351 348 345 343 344 344
313 311 313 311 309 312 312 312 312 312 312 314 314 313 315 314 314 313 313 313 314 319 320 318 316 329 337 333 339 335 335 342 345 344 344 346 348 349 348 348 346 345 344 341
312 312 312 313 313 312 312 312 311 311 312 312 312 313 313 315 314 314 314 314 315 316 316 316 318 324 334 338 341 341 343 344 342 345 346 346 349 348 348 344 344 343 338 335
311 314 313 313 313 313 313 312 311 311 310 311 311 312 313 314 315 313 314 314 313 314 314 314 321 334 337 340 338 342 342 343 344 345 347 348 344 343 341 340 338 336 336 336
312 315 314 315 314 313 313 313 311 311 314 315 315 313 314 315 314 313 312 313 313 314 314 315 325 335 338 340 343 342 340 343 344 344 344 342 341 341 338 336 336 333 333 332
313 314 313 312 312 313 314 313 313 314 314 315 315 314 313 314 315 314 314 313 315 317 317 320 329 334 336 337 342 340 341 342 342 341 341 340 339 338 335 333 333 333 333 331
312 313 313 313 312 315 313 314 314 313 313 313 316 315 315 315 315 316 317 318 320 322 321 326 329 330 325 333 340 340 341 341 339 338 339 338 336 333 332 333 333 333 330 330
312 312 314 314 310 313 314 314 312 312 311 313 313 312 312 313 313 316 319 317 318 320 326 326 328 330 322 329 339 339 340 339 338 337 335 334 333 331 331 331 331 330 329 330
312 312 313 312 314 315 316 313 312 310 314 312 310 310 311 310 313 314 314 314 317 318 323 324 326 329 326 328 337 338 337 335 333 333 334 334 331 331 330 330 330 329 330 331
315 313 313 313 314 313 313 311 311 312 313 310 310 310 309 310 309 310 311 312 315 316 321 327 326 328 327 333 335 334 333 332 333 333 332 331 330 330 331 330 330 330 330 329
315 314 312 312 316 314 311 311 312 311 311 311 311 310 310 309 310 310 311 311 313 317 319 325 326 330 330 334 333 333 333 333 333 331 330 330 331 330 330 330 329 330 329 330
310 312 314 313 311 313 311 311 311 311 310 310 310 310 309 309 310 310 311 312 313 318 319 327 326 329 336 335 332 333 333 333 331 330 332 331 329 329 328 329 329 330 331 331
311 312 314 313 313 313 313 312 309 308 309 308 308 308 308 309 310 313 315 316 314 316 321 325 329 334 336 334 332 334 332 331 332 332 331 330 330 329 328 329 330 330 330 331
310 312 313 313 313 311 311 309 308 307 307 306 306 307 309 311 313 316 318 321 320 319 321 327 330 329 335 335 334 333 334 334 333 331 330 331 332 331 330 331 330 330 330 330
312 314 314 315 312 310 308 306 306 306 306 307 307 308 310 312 314 316 320 323 322 324 330 329 328 326 332 335 334 334 333 333 331 329 331 330 329 330 331 331 330 330 331 330

GFSCGP_850_thetae_054.txt.gz
Theta_e
310 307 308 309 308 310 311 311 310 311 312 311 310 311 312 312 313 312 313 314 315 316 319 321 323 324 325 327 328 331 335 335 334 334 335 337 334 335 334 333 334 333 334 338
307 307 310 310 310 309 309 309 309 310 312 311 310 311 311 311 311 312 313 314 314 315 316 319 320 321 323 325 327 329 334 333 333 332 331 331 331 330 332 333 335 334 335 334
308 309 310 310 309 310 311 311 312 312 312 312 310 311 311 311 312 313 313 313 314 315 316 317 320 321 323 325 325 327 330 333 332 332 332 332 332 332 332 331 328 327 329 324
308 309 310 310 311 313 313 313 313 313 312 311 312 311 311 311 311 311 312 313 313 314 315 315 316 318 320 323 324 327 328 329 333 333 333 333 332 330 328 327 326 324 323 328
307 309 308 309 313 313 313 313 312 313 311 309 311 309 311 310 311 311 311 313 313 314 314 314 315 315 320 321 323 323 325 330 332 333 332 330 329 327 327 326 326 324 323 329
307 309 312 312 312 312 313 311 309 310 310 311 310 310 311 309 310 311 313 314 315 315 314 315 315 316 316 319 322 326 328 331 333 331 329 328 327 327 326 326 326 326 328 327
309 308 312 313 312 311 310 308 309 310 309 311 311 311 311 310 311 314 315 314 314 314 315 316 316 316 316 317 320 322 329 330 329 329 328 327 326 325 325 327 327 326 333 338
307 307 309 314 312 310 309 309 309 313 313 312 312 314 312 314 314 314 314 314 313 313 314 317 317 317 316 317 319 322 326 329 327 326 325 325 325 325 325 327 326 328 337 341
310 310 311 311 310 309 309 310 308 311 310 313 313 313 311 314 314 313 313 313 312 312 313 317 318 320 317 319 320 322 323 323 324 323 324 326 326 326 326 327 328 329 341 345
311 311 311 311 311 310 309 308 309 308 313 315 312 313 312 315 314 313 312 311 312 312 313 317 319 321 321 323 326 323 323 323 323 323 324 324 324 325 327 331 330 329 340 344
311 310 311 311 310 309 308 311 312 312 314 316 318 314 313 315 312 312 311 311 312 312 313 316 319 319 318 331 332 327 325 323 324 325 324 323 324 328 330 331 331 333 336 346
312 311 312 311 310 310 311 311 310 307 309 315 315 312 311 312 311 310 311 312 312 313 315 318 318 316 317 325 335 338 327 327 326 325 324 325 327 330 336 337 334 332 345 344
311 309 312 309 308 308 311 312 311 311 311 312 314 312 310 313 313 312 311 313 314 314 314 318 317 316 321 324 329 339 333 328 329 327 327 332 339 337 335 334 343 347 343 342
313 310 311 312 310 308 312 312 312 311 313 312 312 311 311 311 314 312 312 313 314 314 315 317 316 316 317 323 328 336 339 330 328 330 336 340 341 341 339 349 346 343 343 342
309 310 311 312 312 313 314 314 313 313 312 312 310 313 313 311 312 312 312 313 313 314 314 316 315 317 319 319 325 336 339 338 339 343 341 341 343 347 349 348 344 342 343 338
308 310 313 312 312 313 312 312 313 313 312 312 314 314 313 312 313 312 312 313 314 314 315 317 322 326 325 328 328 336 339 339 338 338 343 343 346 345 344 344 345 342 337 335
307 309 312 313 312 312 313 315 314 312 312 312 313 314 312 312 312 312 312 315 315 316 317 319 323 324 326 324 318 336 338 339 338 342 342 344 345 342 341 340 337 336 336 334
309 310 313 313 310 314 312 313 312 312 311 312 311 312 311 310 310 310 311 314 312 312 313 316 321 326 326 321 327 335 338 339 339 340 341 343 340 338 337 335 332 332 330 330
310 310 314 314 306 311 313 314 313 312 312 313 312 310 310 310 309 310 311 310 310 310 312 314 316 326 327 322 324 334 334 339 338 339 341 340 338 336 333 332 332 332 330 330
310 308 308 313 314 312 310 313 312 311 311 312 310 309 309 310 311 310 309 309 309 310 311 312 317 324 327 324 325 327 329 337 338 340 339 337 334 330 331 331 332 330 329 330
311 313 313 313 314 313 312 312 311 311 311 310 310 310 311 311 310 310 310 309 310 310 311 312 318 325 327 323 324 323 330 337 337 337 333 329 328 330 330 329 329 329 329 330
310 312 314 313 313 312 311 311 313 311 311 311 310 309 309 309 310 309 308 309 310 313 315 314 320 324 327 321 322 323 332 335 333 331 331 330 330 329 330 329 329 329 330 330
306 311 312 310 310 310 312 312 312 311 309 309 308 307 307 308 308 308 309 310 313 316 319 315 319 321 326 324 330 332 333 332 332 333 331 329 330 330 329 329 329 330 329 329
307 308 309 312 311 312 312 312 310 308 307 307 306 307 306 307 307 309 310 312 314 317 321 320 321 328 329 329 333 332 332 333 333 331 330 330 329 331 330 329 329 329 329 330
307 308 311 312 311 311 310 309 306 305 305 306 306 306 307 308 309 310 312 313 316 321 324 325 327 328 327 333 332 333 333 331 331 331 331 329 329 329 329 329 329 329 330 330
308 313 313 312 311 310 308 307 304 306 306 306 306 306 307 309 311 311 313 315 317 321 326 328 329 325 328 332 332 332 331 331 330 330 329 329 329 328 329 329 330 330 330 330

GFSCGP_850_thetae_057.txt.gz
Theta_e
308 306 308 308 307 308 309 310 310 309 310 310 309 310 311 310 311 311 312 313 313 314 314 315 315 316 319 322 327 328 329 336 341 342 339 337 336 337 337 337 335 330 331 332
305 307 308 308 308 308 308 308 310 310 312 311 310 311 310 310 310 311 311 312 313 313 314 314 314 315 316 319 321 323 325 327 336 339 336 336 337 336 336 335 334 331 332 332
307 308 309 309 310 312 311 312 312 312 312 310 309 310 310 310 310 311 312 312 312 313 313 313 313 314 315 316 317 320 323 324 326 332 336 336 337 335 335 334 332 331 334 331
307 308 309 309 311 312 311 312 312 312 311 310 310 310 309 309 309 309 310 311 311 312 312 313 313 314 314 315 316 316 319 324 325 326 336 336 334 334 332 332 331 332 331 327
307 308 308 308 311 312 310 312 311 311 309 309 310 308 308 309 308 308 308 311 314 314 315 315 314 314 314 315 315 316 318 321 324 327 331 333 334 333 332 332 331 330 327 326
306 308 309 311 312 311 311 310 307 306 308 309 309 309 308 308 308 308 311 314 314 314 313 314 315 315 315 315 315 316 317 320 324 324 324 330 333 333 333 332 331 328 326 326
308 307 311 312 311 308 307 306 307 307 307 309 308 309 310 309 310 313 312 313 313 313 312 312 312 314 315 315 315 316 317 319 322 327 324 330 332 332 333 332 328 327 326 326
305 306 310 313 310 309 309 306 307 309 310 308 308 309 310 312 313 313 314 313 313 312 311 311 312 312 316 317 316 315 316 318 320 324 331 332 333 333 331 329 327 326 326 326
309 310 310 310 309 309 309 309 307 308 307 307 308 309 310 311 313 313 312 312 312 311 311 312 313 313 317 319 319 318 317 319 320 322 329 332 331 329 328 325 326 326 327 328
310 311 310 310 310 309 307 307 307 306 311 312 309 310 311 310 310 312 311 311 312 311 312 314 315 314 319 319 318 322 323 325 322 322 327 330 328 326 325 326 326 327 328 329
310 309 310 310 309 308 307 309 309 307 308 308 309 310 309 311 312 312 311 311 311 311 314 314 314 316 317 317 320 324 331 329 325 322 324 326 326 325 325 326 327 328 331 330
311 308 311 310 309 308 308 308 308 304 305 312 310 311 310 309 308 309 310 311 312 312 314 313 314 316 315 317 319 324 333 336 328 324 322 322 322 324 325 325 327 331 333 332
309 308 311 309 307 306 310 311 309 309 307 311 312 310 309 309 309 310 310 311 312 311 313 314 314 315 315 323 324 325 332 337 330 328 324 324 325 324 325 326 326 332 334 333
312 308 310 311 309 306 310 310 311 312 313 312 311 310 310 310 309 310 311 311 311 312 314 313 317 319 322 320 321 321 330 337 333 329 327 325 325 326 327 330 334 337 333 338
308 309 309 310 311 311 312 312 313 313 313 315 313 311 310 309 309 310 312 312 312 316 316 315 316 317 323 322 324 324 325 339 337 331 330 328 327 333 333 335 334 335 343 343
306 308 311 311 310 310 311 311 311 311 311 313 313 312 311 311 311 310 310 310 311 315 314 316 313 316 322 325 326 323 321 333 341 333 332 336 338 337 340 337 343 345 342 343
306 306 308 310 311 311 312 311 313 313 313 313 313 312 311 311 310 309 309 309 310 312 310 311 312 314 315 324 326 325 321 331 342 339 336 338 336 340 342 345 345 342 341 340
306 307 312 312 309 314 310 313 312 312 312 311 310 311 311 310 309 309 309 309 310 309 309 309 311 314 315 322 327 325 323 328 338 339 337 336 340 342 342 343 343 340 336 334
306 309 313 314 308 309 311 312 312 311 311 311 312 311 310 310 309 309 309 309 309 309 309 309 310 312 315 325 326 324 325 333 339 338 336 338 341 342 340 342 340 336 335 333
308 309 312 312 314 310 308 312 311 311 312 310 310 310 310 310 310 309 308 307 309 308 308 310 312 314 320 325 326 324 327 331 336 337 337 339 340 339 337 336 335 334 328 329
311 312 313 311 312 310 310 311 310 313 310 310 310 310 309 309 309 308 307 307 307 307 309 313 316 315 319 324 327 324 326 335 334 336 337 338 338 336 334 331 330 330 331 330
307 306 308 312 313 309 311 311 313 312 311 311 310 308 307 307 307 306 307 307 306 309 311 314 318 318 321 325 327 322 326 333 332 335 337 336 335 332 331 330 331 329 329 330
304 310 311 307 305 306 311 311 311 311 309 306 305 305 306 306 306 306 306 307 308 310 312 314 319 320 324 325 324 324 327 327 330 333 331 331 331 330 329 330 329 329 329 329
307 306 305 308 308 309 311 311 310 308 305 304 305 305 306 306 307 307 308 309 310 311 313 316 322 322 325 324 324 325 328 331 332 329 328 328 329 328 329 329 329 329 329 329
307 307 308 310 310 310 310 310 306 307 305 305 306 306 307 306 307 307 309 310 311 312 314 317 321 322 323 322 327 329 326 332 331 330 330 330 329 329 329 329 329 329 329 328
306 307 311 311 310 310 310 308 305 305 306 305 306 305 305 306 307 309 310 311 313 315 318 321 325 327 324 331 331 331 331 331 331 330 330 329 330 330 329 329 329 329 328 329

GFSCGP_850_thetae_060.txt.gz
Theta_e
306 306 307 307 306 308 309 309 309 308 310 310 309 309 309 310 310 310 311 312 312 312 312 313 313 314 315 317 319 323 328 333 333 332 340 342 339 336 332 335 336 339 338 336
305 306 307 308 307 307 307 308 310 309 310 311 309 309 309 309 309 310 311 311 312 312 312 312 313 313 314 314 316 319 322 325 331 336 333 338 343 340 336 340 337 337 338 337
306 307 308 309 310 310 310 310 311 311 311 308 308 307 308 309 310 310 310 311 311 311 310 311 312 312 313 313 314 315 317 320 322 325 332 337 340 343 342 338 337 336 337 337
306 307 308 308 310 310 310 311 311 310 308 307 309 308 307 307 307 308 308 309 310 311 313 313 314 314 313 313 313 314 315 316 318 321 323 325 330 335 333 337 336 334 335 336
307 307 308 308 310 310 308 311 310 310 308 308 307 307 306 306 308 307 307 310 311 312 314 314 313 313 314 314 314 314 314 315 316 318 321 324 325 326 330 334 335 333 334 337
305 307 307 307 311 310 308 308 305 304 305 307 306 307 306 306 308 307 310 313 313 313 312 312 311 311 312 313 314 314 314 314 315 316 319 322 325 326 330 334 335 333 336 334
307 307 309 311 310 307 305 304 306 306 305 306 306 307 306 307 308 307 311 313 313 312 312 311 312 312 312 312 313 315 315 314 315 316 318 322 323 326 327 328 332 334 335 332
308 308 310 312 309 308 307 305 306 309 309 305 306 307 306 307 308 310 312 313 313 312 312 312 312 313 314 315 312 315 317 315 315 316 317 320 325 324 324 325 328 331 335 331
310 310 309 310 309 308 308 308 305 306 305 305 306 306 307 308 308 309 311 312 312 311 311 311 312 313 314 315 314 318 317 318 316 315 317 319 322 329 327 331 332 332 334 329
309 311 310 310 309 308 307 306 307 304 310 311 308 307 308 307 307 307 309 310 309 310 310 311 312 314 315 316 316 316 318 320 320 316 316 320 321 328 331 331 332 332 330 331
309 310 310 310 309 308 306 308 307 304 303 306 307 308 306 307 308 309 306 309 309 310 311 311 312 314 317 316 317 320 321 322 323 321 318 321 321 324 330 330 329 330 329 327
310 309 311 311 309 307 306 307 307 304 305 311 310 311 309 307 306 307 308 309 312 312 311 312 314 314 317 317 322 322 323 321 328 330 326 324 321 324 329 330 329 328 327 327
310 309 311 309 307 306 310 310 307 306 305 311 312 310 307 307 307 308 308 311 312 312 315 315 315 313 315 317 321 322 325 321 327 335 331 326 322 324 328 328 328 326 326 328
311 308 311 309 307 304 309 309 309 309 313 311 311 311 310 309 309 307 311 311 310 310 311 312 314 314 312 315 318 323 325 323 326 337 331 326 322 322 323 324 324 325 327 331
308 310 309 309 310 310 310 311 311 311 311 312 312 311 311 310 309 309 310 309 309 309 309 314 313 313 312 314 318 319 324 324 323 338 332 328 324 323 323 324 327 328 331 334
305 307 308 310 310 311 311 310 310 310 311 311 311 311 311 311 310 309 309 309 309 309 309 311 309 309 311 313 317 318 323 324 323 338 335 331 325 325 328 329 332 336 336 334
307 306 308 310 309 310 311 310 310 310 312 311 312 311 310 309 310 310 309 309 309 308 310 308 309 308 309 313 317 318 321 324 323 337 336 336 332 330 334 335 335 334 334 341
304 305 308 309 309 312 308 311 311 311 312 310 310 310 310 310 310 310 310 309 309 309 308 307 308 307 308 309 311 317 323 324 325 336 337 335 337 337 337 338 336 340 342 341
304 307 311 313 309 307 309 311 311 310 311 311 310 310 310 311 310 309 308 307 308 308 308 307 307 307 309 312 314 321 323 324 328 334 340 340 338 335 336 338 339 342 342 342
308 307 311 311 308 304 308 311 310 308 313 310 310 311 311 310 310 308 307 306 306 306 306 306 306 308 311 314 315 319 324 323 328 331 338 339 336 335 338 339 341 341 338 334
310 310 311 312 312 307 309 310 310 311 310 310 310 310 308 306 306 305 305 306 306 306 306 306 307 310 313 317 318 320 324 323 328 333 337 337 337 338 339 339 340 337 334 332
304 308 308 310 311 310 310 310 312 309 310 310 309 306 304 304 304 305 306 306 307 307 307 308 309 311 315 320 321 323 324 323 330 338 336 336 335 337 337 337 335 333 329 328
305 305 303 304 303 303 307 309 310 310 310 307 306 305 305 305 305 305 306 307 307 308 308 309 310 313 317 321 323 323 325 322 329 335 335 335 335 335 334 332 331 329 330 330
305 305 306 307 305 306 308 309 310 310 307 305 305 305 305 306 307 306 306 307 307 308 309 310 312 314 319 323 323 324 323 324 329 329 334 335 334 331 330 328 328 329 330 329
306 306 305 306 306 308 309 309 310 309 305 304 305 305 305 305 306 306 306 307 308 310 312 314 315 317 320 322 323 324 325 328 330 330 332 333 331 330 330 329 329 329 328 328
306 306 309 309 308 308 309 309 308 306 304 304 305 305 304 305 305 306 307 308 309 311 316 318 319 321 320 324 323 324 326 324 331 332 332 330 328 330 329 329 329 329 329 329